KJ6MC Weather Reports


Display with metric or nautical units.
time (UTC)temp
F
wind
direction
speed
MPH
gust
MPH
rain 1hr
in
rain 24hr
in
rain mn
in
humidity
%
barometer
mb
20260905042556 66 230 3.0 8.0 0.00 0.03 0.03 62 1013.1
20260905042514 66 257 3.0 8.0 0.00 0.03 0.03 62 1013.1
20260905042454 66 236 3.0 8.0 0.00 0.03 0.03 62 1013.1
20260905042354 66 246 2.0 8.0 0.00 0.03 0.03 62 1013.1
20260905042253 66 231 2.0 8.0 0.00 0.03 0.03 62 1013.1
20260905042157 66 211 2.0 8.0 0.00 0.03 0.03 61 1013.1
20260905042048 66 203 3.0 10.0 0.00 0.03 0.03 61 1013.1
20260905042008 66 239 3.0 10.0 0.00 0.03 0.03 61 1013.1
20260905041948 66 238 3.0 10.0 0.00 0.03 0.03 61 1013.1
20260905041848 66 260 3.0 10.0 0.00 0.03 0.03 61 1013.0
20260905041748 66 243 3.0 10.0 0.00 0.03 0.03 61 1013.0
20260905041648 66 238 3.0 10.0 0.00 0.03 0.03 61 1013.0
20260905041546 66 219 3.0 10.0 0.00 0.03 0.03 61 1013.0
20260905041503 66 219 3.0 10.0 0.00 0.03 0.03 61 1013.0
20260905041445 66 235 3.0 10.0 0.00 0.03 0.03 61 1013.0
20260905041346 66 235 3.0 10.0 0.00 0.03 0.03 61 1013.0
20260905041244 67 210 3.0 10.0 0.00 0.03 0.03 61 1013.0
20260905041141 67 235 3.0 10.0 0.00 0.03 0.03 61 1013.0
20260905041037 67 239 3.0 10.0 0.00 0.03 0.03 61 1013.0
20260905040956 67 240 3.0 10.0 0.00 0.03 0.03 61 1013.0
20260905040937 67 218 3.0 10.0 0.00 0.03 0.03 61 1013.0
20260905040838 67 231 3.0 9.0 0.00 0.03 0.03 61 1012.9
20260905040739 67 212 3.0 9.0 0.00 0.03 0.03 61 1012.9
20260905040636 67 246 3.0 9.0 0.00 0.03 0.03 61 1012.9
20260905040532 67 208 3.0 9.0 0.00 0.03 0.03 61 1012.9
20260905040449 67 235 2.0 8.0 0.00 0.03 0.03 61 1012.9
20260905040433 67 231 2.0 9.0 0.00 0.03 0.03 61 1012.9
20260905040429 67 198 2.0 6.0 0.00 0.03 0.03 61 1012.9
20260905040330 67 224 2.0 6.0 0.00 0.03 0.03 61 1012.9
20260905040311 67 233 2.0 6.0 0.00 0.03 0.03 61 1012.9
20260905040129 67 200 2.0 6.0 0.00 0.03 0.03 61 1012.9
20260905040055 67 250 2.0 6.0 0.00 0.03 0.03 61 1012.9
20260905035927 67 228 2.0 9.0 0.00 0.03 0.03 61 1012.9
20260905035824 67 221 3.0 9.0 0.00 0.03 0.03 61 1012.9
20260905035723 67 221 3.0 9.0 0.00 0.03 0.03 61 1012.9
20260905035658 67 231 3.0 11.0 0.00 0.03 0.03 60 1012.8
20260905035624 67 235 3.0 9.0 0.00 0.03 0.03 60 1012.9
20260905035549 67 231 3.0 9.0 0.00 0.03 0.03 60 1012.9
20260905035418 67 231 3.0 11.0 0.00 0.03 0.03 60 1012.8
20260905035318 67 232 3.0 11.0 0.00 0.03 0.03 60 1012.8
20260905035218 67 294 3.0 11.0 0.00 0.03 0.03 60 1012.8
20260905035122 67 238 3.0 11.0 0.00 0.03 0.03 60 1012.7
20260905035011 67 242 3.0 11.0 0.00 0.03 0.03 60 1012.7
20260905034932 67 240 3.0 11.0 0.00 0.03 0.03 60 1012.7
20260905034912 67 212 3.0 11.0 0.00 0.03 0.03 60 1012.8
20260905034811 67 242 3.0 11.0 0.00 0.03 0.03 60 1012.7
20260905034712 67 255 3.0 11.0 0.00 0.03 0.03 60 1012.8
20260905034611 67 226 3.0 11.0 0.00 0.03 0.03 60 1012.8
20260905034506 67 248 2.0 11.0 0.00 0.03 0.03 60 1012.8
20260905034427 67 250 2.0 10.0 0.00 0.03 0.03 60 1012.8
20260905034406 67 230 2.0 10.0 0.00 0.03 0.03 60 1012.7
20260905034305 68 252 2.0 10.0 0.00 0.03 0.03 60 1012.7
20260905034207 68 276 2.0 10.0 0.00 0.03 0.03 60 1012.7
20260905034105 68 240 2.0 10.0 0.00 0.03 0.03 60 1012.7
20260905034001 68 163 2.0 10.0 0.00 0.03 0.03 60 1012.7
20260905033924 68 253 2.0 10.0 0.00 0.03 0.03 60 1012.7
20260905033859 68 233 2.0 10.0 0.00 0.03 0.03 60 1012.7
20260905033800 68 253 2.0 7.0 0.00 0.03 0.03 60 1012.7
20260905033700 68 228 3.0 7.0 0.00 0.03 0.03 60 1012.7
20260905033559 68 242 3.0 7.0 0.00 0.03 0.03 60 1012.7
20260905033500 68 253 3.0 8.0 0.00 0.03 0.03 59 1012.6
20260905033414 68 245 3.0 9.0 0.00 0.03 0.03 59 1012.7
20260905033358 68 245 3.0 9.0 0.00 0.03 0.03 59 1012.7
20260905033256 68 236 4.0 9.0 0.00 0.03 0.03 59 1012.6
20260905033156 68 259 4.0 9.0 0.00 0.03 0.03 59 1012.7
20260905033054 68 232 4.0 9.0 0.00 0.03 0.03 59 1012.6
20260905032952 68 248 3.0 9.0 0.00 0.03 0.03 59 1012.6
20260905032908 68 274 3.0 9.0 0.00 0.03 0.03 59 1012.5
20260905032851 68 239 3.0 9.0 0.00 0.03 0.03 59 1012.5
20260905032752 68 239 3.0 9.0 0.00 0.03 0.03 59 1012.5
20260905032653 68 245 3.0 9.0 0.00 0.03 0.03 59 1012.5
20260905032547 68 235 3.0 9.0 0.00 0.03 0.03 59 1012.4
20260905032444 69 239 2.0 9.0 0.00 0.03 0.03 59 1012.5
20260905032403 69 268 2.0 8.0 0.00 0.03 0.03 59 1012.5
20260905032342 69 238 2.0 8.0 0.00 0.03 0.03 59 1012.5
20260905032242 69 232 2.0 6.0 0.00 0.03 0.03 59 1012.4
20260905032142 69 229 2.0 6.0 0.00 0.03 0.03 59 1012.4
20260905032041 69 287 2.0 6.0 0.00 0.03 0.03 59 1012.4
20260905031939 69 231 2.0 7.0 0.00 0.03 0.03 59 1012.4
20260905031857 69 221 2.0 7.0 0.00 0.03 0.03 59 1012.4
20260905031839 69 283 2.0 7.0 0.00 0.03 0.03 58 1012.4
20260905031740 69 203 2.0 7.0 0.00 0.03 0.03 58 1012.4
20260905031637 69 269 2.0 7.0 0.00 0.03 0.03 58 1012.4
20260905031536 69 271 2.0 7.0 0.00 0.03 0.03 58 1012.3
20260905031429 69 238 2.0 7.0 0.00 0.03 0.03 58 1012.3
20260905031350 69 194 2.0 7.0 0.00 0.03 0.03 58 1012.3
20260905031329 69 201 2.0 7.0 0.00 0.03 0.03 58 1012.3
20260905031231 69 281 2.0 9.0 0.00 0.03 0.03 58 1012.3
20260905031130 69 236 2.0 9.0 0.00 0.03 0.03 58 1012.3
20260905031029 69 257 2.0 9.0 0.00 0.03 0.03 58 1012.3
20260905030924 69 238 2.0 9.0 0.00 0.03 0.03 58 1012.3
20260905030845 69 214 2.0 9.0 0.00 0.03 0.03 58 1012.3
20260905030823 69 214 2.0 9.0 0.00 0.03 0.03 57 1012.3
20260905030724 69 239 2.0 9.0 0.00 0.03 0.03 57 1012.3
20260905030623 70 239 2.0 9.0 0.00 0.03 0.03 57 1012.3
20260905030524 70 217 2.0 9.0 0.00 0.03 0.03 57 1012.3
20260905030419 70 238 2.0 9.0 0.00 0.03 0.03 57 1012.3
20260905030318 70 287 3.0 9.0 0.00 0.03 0.03 57 1012.3
20260905030219 70 288 3.0 9.0 0.00 0.03 0.03 56 1012.3
20260905030118 70 246 3.0 9.0 0.00 0.03 0.03 56 1012.3
20260905030054 70 232 3.0 9.0 0.00 0.03 0.03 56 1012.3
20260905030017 70 277 3.0 9.0 0.00 0.03 0.03 56 1012.3
20260905025943 70 233 3.0 9.0 0.00 0.03 0.03 56 1012.3
20260905025812 70 245 3.0 9.0 0.00 0.03 0.03 56 1012.3
20260905025713 70 235 3.0 9.0 0.00 0.03 0.03 56 1012.2
20260905025611 70 273 3.0 9.0 0.00 0.03 0.03 56 1012.3
20260905025511 70 256 3.0 9.0 0.00 0.03 0.03 56 1012.2
20260905025407 70 289 2.0 9.0 0.00 0.03 0.03 55 1012.2
20260905025327 70 255 2.0 8.0 0.00 0.03 0.03 55 1012.2
20260905025308 70 270 2.0 8.0 0.00 0.03 0.03 55 1012.2
20260905025209 71 278 2.0 7.0 0.00 0.03 0.03 55 1012.2
20260905025108 71 229 2.0 7.0 0.00 0.03 0.03 55 1012.2
20260905025038 71 225 2.0 10.0 0.00 0.03 0.03 55 1012.1
20260905025006 71 219 3.0 8.0 0.00 0.03 0.03 55 1012.2
20260905024930 71 273 2.0 10.0 0.00 0.03 0.03 55 1012.1
20260905024800 71 225 3.0 10.0 0.00 0.03 0.03 55 1012.1
20260905024700 71 210 3.0 10.0 0.00 0.03 0.03 54 1012.1
20260905024600 71 277 3.0 10.0 0.00 0.03 0.03 54 1012.1
20260905024500 71 284 3.0 10.0 0.00 0.03 0.03 54 1012.1
20260905024400 71 229 3.0 10.0 0.00 0.03 0.03 54 1012.1
20260905024314 71 270 2.0 10.0 0.00 0.03 0.03 54 1012.1
20260905024257 71 263 2.0 10.0 0.00 0.03 0.03 54 1012.1
20260905024159 71 263 3.0 10.0 0.00 0.03 0.03 54 1012.1
20260905024055 71 248 3.0 10.0 0.00 0.03 0.03 54 1012.0
20260905023954 71 250 2.0 10.0 0.00 0.03 0.03 53 1012.0
20260905023849 71 278 2.0 10.0 0.00 0.03 0.03 53 1012.0
20260905023808 71 246 2.0 10.0 0.00 0.03 0.03 53 1012.0
20260905023748 72 248 2.0 10.0 0.00 0.03 0.03 53 1012.0
20260905023653 72 271 2.0 10.0 0.00 0.03 0.03 53 1012.1
20260905023548 72 212 3.0 10.0 0.00 0.03 0.03 53 1012.0
20260905023447 72 257 3.0 10.0 0.00 0.03 0.03 52 1012.1
20260905023341 72 271 3.0 10.0 0.00 0.03 0.03 52 1012.1
20260905023303 72 235 3.0 10.0 0.00 0.03 0.03 52 1012.1
20260905023242 72 233 3.0 10.0 0.00 0.03 0.03 52 1012.1
20260905023141 72 239 3.0 12.0 0.00 0.03 0.03 52 1012.1
20260905023042 72 200 4.0 12.0 0.00 0.03 0.03 52 1012.1
20260905022941 72 264 4.0 12.0 0.00 0.03 0.03 52 1012.0
20260905022838 73 302 4.0 12.0 0.00 0.03 0.03 52 1012.0
20260905022758 73 223 4.0 12.0 0.00 0.03 0.03 52 1012.1
20260905022737 73 222 4.0 12.0 0.00 0.03 0.03 52 1012.1
20260905022638 73 250 4.0 12.0 0.00 0.03 0.03 52 1012.1
20260905022538 73 235 4.0 12.0 0.00 0.03 0.03 52 1012.1
20260905022517 73 238 3.0 12.0 0.00 0.03 0.03 51 1012.0
20260905022436 73 221 4.0 12.0 0.00 0.03 0.03 51 1012.1
20260905022401 73 226 4.0 12.0 0.00 0.03 0.03 51 1012.1
20260905022230 73 249 3.0 12.0 0.00 0.03 0.03 50 1012.0
20260905022130 73 235 3.0 12.0 0.00 0.03 0.03 49 1012.0
20260905022030 73 240 2.0 12.0 0.00 0.03 0.03 49 1012.1
20260905021929 74 229 2.0 12.0 0.00 0.03 0.03 48 1012.0
20260905021826 74 136 2.0 6.0 0.00 0.03 0.03 46 1012.0
20260905021744 74 157 2.0 5.0 0.00 0.03 0.03 45 1012.0
20260905021726 74 228 2.0 5.0 0.00 0.03 0.03 45 1012.0
20260905021625 74 235 2.0 5.0 0.00 0.03 0.03 45 1012.0
20260905021526 74 170 2.0 5.0 0.00 0.03 0.03 44 1012.0
20260905021500 74 243 2.0 4.0 0.00 0.03 0.03 44 1011.9
20260905021423 74 226 2.0 5.0 0.00 0.03 0.03 44 1011.9
20260905021349 74 198 2.0 5.0 0.00 0.03 0.03 44 1011.9
20260905021228 74 193 2.0 4.0 0.00 0.03 0.03 44 1011.9
20260905021219 74 229 2.0 4.0 0.00 0.03 0.03 44 1011.9
20260905021119 74 229 2.0 4.0 0.00 0.03 0.03 44 1012.0
20260905021109 74 229 2.0 4.0 0.00 0.03 0.03 44 1012.0
20260905020923 74 229 2.0 4.0 0.00 0.03 0.03 44 1011.9
20260905020843 74 141 2.0 4.0 0.00 0.03 0.03 44 1011.9
20260905020712 74 203 2.0 4.0 0.00 0.03 0.03 44 1011.9
20260905020612 74 207 2.0 5.0 0.00 0.03 0.03 44 1011.9
20260905020512 74 233 2.0 5.0 0.00 0.03 0.03 43 1011.9
20260905020411 74 229 2.0 7.0 0.00 0.03 0.03 44 1011.9
20260905020306 74 229 2.0 7.0 0.00 0.03 0.03 44 1012.0
20260905020240 74 200 2.0 7.0 0.00 0.03 0.03 44 1012.0
20260905020206 74 200 2.0 7.0 0.00 0.03 0.03 43 1011.9
20260905020106 74 200 2.0 7.0 0.00 0.03 0.03 43 1012.0
20260905020006 74 188 2.0 7.0 0.00 0.03 0.03 43 1012.0
20260905015906 74 228 2.0 7.0 0.00 0.03 0.03 43 1012.0
20260905015800 74 235 2.0 7.0 0.00 0.03 0.03 43 1012.0
20260905015720 74 215 2.0 7.0 0.00 0.03 0.03 43 1012.0
20260905015701 74 246 2.0 7.0 0.00 0.03 0.03 43 1012.0
20260905015559 74 226 1.0 7.0 0.00 0.03 0.03 43 1012.1
20260905015459 74 211 1.0 7.0 0.00 0.03 0.03 43 1012.0
20260905015400 74 226 1.0 4.0 0.00 0.03 0.03 43 1012.0
20260905015300 74 246 1.0 4.0 0.00 0.03 0.03 43 1012.0
20260905015214 74 246 1.0 4.0 0.00 0.03 0.03 43 1012.0
20260905015158 74 246 1.0 4.0 0.00 0.03 0.03 43 1012.0
20260905015055 74 246 2.0 4.0 0.00 0.03 0.03 43 1012.1
20260905014956 74 246 2.0 6.0 0.00 0.03 0.03 43 1012.0
20260905014853 74 231 2.0 6.0 0.00 0.03 0.03 43 1012.0
20260905014750 74 231 2.0 6.0 0.00 0.03 0.03 43 1012.1
20260905014708 74 231 2.0 6.0 0.00 0.03 0.03 43 1012.1
20260905014651 74 230 3.0 6.0 0.00 0.03 0.03 43 1012.1
20260905014548 75 240 3.0 8.0 0.00 0.03 0.03 43 1012.0
20260905014447 75 267 3.0 8.0 0.00 0.03 0.03 43 1012.0
20260905014347 75 231 3.0 8.0 0.00 0.03 0.03 42 1012.0
20260905014241 75 207 3.0 8.0 0.00 0.03 0.03 42 1012.0
20260905014203 75 214 3.0 8.0 0.00 0.03 0.03 42 1012.0
20260905014142 75 215 3.0 8.0 0.00 0.03 0.03 42 1012.0
20260905014042 75 240 3.0 8.0 0.00 0.03 0.03 42 1012.0
20260905013942 75 262 3.0 8.0 0.00 0.03 0.03 42 1012.0
20260905013841 75 200 3.0 8.0 0.00 0.03 0.03 41 1012.0
20260905013737 75 198 3.0 8.0 0.00 0.03 0.03 41 1012.0
20260905013701 75 242 3.0 8.0 0.00 0.03 0.03 41 1012.0
20260905013636 75 201 3.0 8.0 0.00 0.03 0.03 41 1012.0
20260905013536 75 188 2.0 7.0 0.00 0.03 0.03 42 1012.0
20260905013435 75 143 3.0 7.0 0.00 0.03 0.03 42 1012.0
20260905013335 75 121 3.0 7.0 0.00 0.03 0.03 41 1012.0
20260905013232 75 217 3.0 7.0 0.00 0.03 0.03 41 1012.0
20260905013151 75 226 3.0 7.0 0.00 0.03 0.03 41 1012.0
20260905013130 75 212 3.0 7.0 0.00 0.03 0.03 41 1012.0
20260905013030 75 238 3.0 7.0 0.00 0.03 0.03 41 1012.0
20260905012929 75 160 3.0 7.0 0.00 0.03 0.03 41 1011.9
20260905012830 75 210 3.0 7.0 0.00 0.03 0.03 41 1012.0
20260905012724 75 138 3.0 7.0 0.00 0.03 0.03 41 1012.0
20260905012645 75 201 3.0 7.0 0.00 0.03 0.03 41 1011.9
20260905012624 75 226 3.0 7.0 0.00 0.03 0.03 41 1011.9
20260905012523 75 186 3.0 8.0 0.00 0.03 0.03 41 1011.9
20260905012423 75 158 3.0 8.0 0.00 0.03 0.03 41 1012.0
20260905012323 75 177 3.0 8.0 0.00 0.03 0.03 41 1011.9
20260905012218 75 253 3.0 8.0 0.00 0.03 0.03 40 1011.9
20260905012138 75 212 3.0 8.0 0.00 0.03 0.03 40 1012.0
20260905012118 75 203 3.0 8.0 0.00 0.03 0.03 40 1012.0
20260905012017 75 231 3.0 8.0 0.00 0.03 0.03 40 1011.9
20260905011918 75 231 3.0 8.0 0.00 0.03 0.03 40 1011.9
20260905011817 75 217 3.0 8.0 0.00 0.03 0.03 40 1011.9
20260905011712 75 273 4.0 8.0 0.00 0.03 0.03 39 1011.9
20260905011636 75 233 4.0 8.0 0.00 0.03 0.03 39 1011.9
20260905011612 75 240 3.0 9.0 0.00 0.03 0.03 39 1011.9
20260905011512 75 212 3.0 9.0 0.00 0.03 0.03 39 1011.8
20260905011412 75 252 3.0 9.0 0.00 0.03 0.03 39 1011.9
20260905011311 75 246 3.0 9.0 0.00 0.03 0.03 39 1011.8
20260905011206 75 223 3.0 9.0 0.00 0.03 0.03 39 1011.8
20260905011138 75 204 3.0 9.0 0.00 0.03 0.03 39 1011.8
20260905011106 75 138 3.0 9.0 0.00 0.03 0.03 39 1011.8
20260905011005 75 154 2.0 9.0 0.00 0.03 0.03 39 1011.9
20260905010906 75 219 2.0 9.0 0.00 0.03 0.03 39 1011.9
20260905010805 75 243 2.0 9.0 0.00 0.03 0.03 38 1011.9
20260905010659 75 253 2.0 9.0 0.00 0.03 0.03 39 1011.9
20260905010634 75 229 2.0 9.0 0.00 0.03 0.03 39 1011.9
20260905010559 75 236 2.0 6.0 0.00 0.03 0.03 39 1011.9
20260905010459 75 170 3.0 6.0 0.00 0.03 0.03 39 1011.9
20260905010400 75 210 3.0 8.0 0.00 0.03 0.03 38 1011.9
20260905010259 75 167 3.0 8.0 0.00 0.03 0.03 39 1011.9
20260905010156 75 211 3.0 8.0 0.00 0.03 0.03 39 1011.9
20260905010135 75 228 3.0 8.0 0.00 0.03 0.03 39 1011.9
20260905010053 75 197 3.0 8.0 0.00 0.03 0.03 39 1011.9
20260905005954 75 197 3.0 8.0 0.00 0.03 0.03 38 1011.9
20260905005854 75 212 3.0 8.0 0.00 0.03 0.03 38 1011.9
20260905005753 75 225 3.0 8.0 0.00 0.03 0.03 38 1011.9
20260905005650 75 262 3.0 8.0 0.00 0.03 0.03 38 1011.9
20260905005634 75 238 3.0 8.0 0.00 0.03 0.03 38 1011.9
20260905005548 75 250 3.0 8.0 0.00 0.03 0.03 37 1011.9
20260905005448 75 226 3.0 8.0 0.00 0.03 0.03 37 1011.8
20260905005348 76 226 2.0 7.0 0.00 0.03 0.03 37 1011.8
20260905005247 76 240 2.0 7.0 0.00 0.03 0.03 37 1011.9
20260905005149 76 239 2.0 7.0 0.00 0.03 0.03 38 1011.8
20260905005134 76 230 2.0 7.0 0.00 0.03 0.03 38 1011.8
20260905005045 76 168 2.0 7.0 0.00 0.03 0.03 37 1011.8
20260905004945 76 168 2.0 7.0 0.00 0.03 0.03 36 1011.8
20260905004844 76 267 3.0 7.0 0.00 0.03 0.03 37 1011.9
20260905004741 76 260 3.0 8.0 0.00 0.03 0.03 37 1011.9
20260905004636 76 256 3.0 8.0 0.00 0.03 0.03 37 1011.9
20260905004535 76 243 3.0 8.0 0.00 0.03 0.03 36 1011.8
20260905004436 76 240 2.0 8.0 0.00 0.03 0.03 36 1011.8
20260905004356 76 232 3.0 8.0 0.00 0.03 0.03 36 1011.8
20260905004335 76 208 3.0 8.0 0.00 0.03 0.03 36 1011.9
20260905004246 76 231 3.0 8.0 0.00 0.03 0.03 36 1011.9
20260905004130 76 246 3.0 8.0 0.00 0.03 0.03 36 1011.8
20260905004029 76 229 3.0 8.0 0.00 0.03 0.03 36 1011.8
20260905003929 76 250 3.0 8.0 0.00 0.03 0.03 36 1011.8
20260905003830 76 249 2.0 6.0 0.00 0.03 0.03 35 1011.8
20260905003634 76 233 2.0 5.0 0.00 0.03 0.03 36 1011.8
20260905003626 76 193 2.0 5.0 0.00 0.03 0.03 36 1011.8
20260905003524 76 235 2.0 5.0 0.00 0.03 0.03 36 1011.8
20260905003424 76 239 1.0 5.0 0.00 0.03 0.03 35 1011.8
20260905003323 76 233 1.0 5.0 0.00 0.03 0.03 35 1011.8
20260905003224 76 243 1.0 5.0 0.00 0.03 0.03 34 1011.8
20260905003135 76 224 1.0 5.0 0.00 0.03 0.03 34 1011.9
20260905003125 76 224 1.0 4.0 0.00 0.03 0.03 35 1011.8
20260905003118 76 163 1.0 5.0 0.00 0.03 0.03 35 1011.8
20260905003013 76 225 1.0 5.0 0.00 0.03 0.03 36 1011.8
20260905002817 76 224 1.0 4.0 0.00 0.03 0.03 35 1011.8
20260905002746 76 224 1.0 4.0 0.00 0.03 0.03 36 1011.8
20260905002612 76 224 1.0 4.0 0.00 0.03 0.03 35 1011.8
20260905002512 76 232 1.0 4.0 0.00 0.03 0.03 35 1011.8
20260905002411 76 138 2.0 4.0 0.00 0.03 0.03 35 1011.9
20260905002312 76 155 2.0 8.0 0.00 0.03 0.03 35 1011.8
20260905002211 76 211 2.0 8.0 0.00 0.03 0.03 34 1011.9
20260905002133 76 211 2.0 8.0 0.00 0.03 0.03 34 1011.9
20260905002106 76 218 2.0 8.0 0.00 0.03 0.03 35 1011.9
20260905002006 76 149 3.0 8.0 0.00 0.03 0.03 34 1011.9
20260905001909 76 165 3.0 8.0 0.00 0.03 0.03 35 1011.9
20260905001806 76 231 3.0 8.0 0.00 0.03 0.03 34 1011.9
20260905001706 76 233 3.0 8.0 0.00 0.03 0.03 34 1011.9
20260905001633 76 233 3.0 8.0 0.00 0.03 0.03 34 1011.9
20260905001559 76 233 3.0 8.0 0.00 0.03 0.03 33 1011.9
20260905001459 76 270 3.0 8.0 0.00 0.03 0.03 33 1012.0
20260905001359 76 270 3.0 8.0 0.00 0.03 0.03 33 1012.0
20260905001300 76 255 3.0 8.0 0.00 0.03 0.03 33 1012.0
20260905001200 76 253 3.0 8.0 0.00 0.03 0.03 33 1012.0
20260905001133 76 255 3.0 8.0 0.00 0.03 0.03 33 1012.0
20260905001058 76 233 2.0 8.0 0.00 0.03 0.03 33 1012.0
20260905000958 76 188 2.0 8.0 0.00 0.03 0.03 33 1012.0
20260905000906 76 195 3.0 9.0 0.00 0.03 0.03 33 1012.0
20260905000857 76 240 3.0 8.0 0.00 0.03 0.03 34 1012.0
20260905000756 76 191 3.0 8.0 0.00 0.03 0.03 33 1012.0
20260905000745 76 188 3.0 9.0 0.00 0.03 0.03 33 1012.0
20260905000556 76 241 3.0 9.0 0.00 0.03 0.03 33 1012.1
20260905000455 76 238 3.0 10.0 0.00 0.03 0.03 35 1012.1
20260905000355 76 228 4.0 10.0 0.00 0.03 0.03 34 1012.0
20260905000255 76 132 4.0 10.0 0.00 0.03 0.03 34 1012.0
20260905000155 76 253 4.0 10.0 0.00 0.03 0.03 35 1012.1
20260905000133 76 253 4.0 10.0 0.00 0.03 0.03 34 1012.1
20260905000053 76 253 4.0 10.0 0.00 0.03 0.03 34 1012.1
20260904235954 76 221 4.0 10.0 0.00 0.03 0.03 33 1012.0
20260904235858 77 216 4.0 10.0 0.00 0.03 0.03 33 1012.0
20260904235853 77 218 4.0 10.0 0.00 0.03 0.03 33 1012.0
20260904235754 77 208 4.0 10.0 0.00 0.03 0.03 33 1012.0
20260904235743 77 229 4.0 10.0 0.00 0.03 0.03 33 1012.0
20260904235553 77 241 4.0 10.0 0.00 0.03 0.03 34 1012.0
20260904235452 77 248 4.0 10.0 0.00 0.03 0.03 35 1012.0
20260904235352 77 132 4.0 11.0 0.00 0.03 0.03 34 1012.0
20260904235251 77 240 5.0 11.0 0.00 0.03 0.03 36 1012.1
20260904235130 77 242 5.0 11.0 0.00 0.03 0.03 37 1012.1
20260904235051 77 212 5.0 11.0 0.00 0.03 0.03 36 1012.1
20260904234951 77 238 5.0 11.0 0.00 0.03 0.03 35 1012.0
20260904234846 77 241 5.0 11.0 0.00 0.03 0.03 33 1012.1
20260904234746 77 176 5.0 11.0 0.00 0.03 0.03 33 1012.1
20260904234646 77 225 4.0 11.0 0.00 0.03 0.03 33 1012.0
20260904234624 78 224 4.0 11.0 0.00 0.03 0.03 33 1012.0
20260904234546 78 205 4.0 11.0 0.00 0.03 0.03 33 1012.1
20260904234446 78 271 3.0 11.0 0.00 0.03 0.03 33 1012.1
20260904234343 78 233 2.0 8.0 0.00 0.03 0.03 34 1012.1
20260904234244 78 204 2.0 8.0 0.00 0.03 0.03 36 1012.1
20260904234145 78 174 2.0 8.0 0.00 0.03 0.03 36 1012.1
20260904234118 78 235 2.0 8.0 0.00 0.03 0.03 36 1012.1
20260904234042 78 229 3.0 9.0 0.00 0.03 0.03 37 1012.1
20260904233939 78 232 3.0 10.0 0.00 0.03 0.03 37 1012.1
20260904233835 78 228 2.0 10.0 0.00 0.03 0.03 37 1012.1
20260904233734 78 232 2.0 10.0 0.00 0.03 0.03 39 1012.2
20260904233612 78 211 2.0 10.0 0.00 0.03 0.03 40 1012.2
20260904233533 78 270 3.0 10.0 0.00 0.03 0.03 40 1012.2
20260904233434 78 274 3.0 10.0 0.00 0.03 0.03 41 1012.2
20260904233327 78 139 3.0 10.0 0.00 0.03 0.03 41 1012.2
20260904233228 78 219 3.0 10.0 0.00 0.03 0.03 40 1012.2
20260904233128 78 239 3.0 10.0 0.00 0.03 0.03 40 1012.2
20260904233107 78 217 2.0 10.0 0.00 0.03 0.03 40 1012.2
20260904233028 78 253 2.0 6.0 0.00 0.03 0.03 41 1012.2
20260904232927 78 241 2.0 6.0 0.00 0.03 0.03 42 1012.1
20260904232827 78 111 1.0 6.0 0.00 0.03 0.03 41 1012.2
20260904232822 78 228 2.0 6.0 0.00 0.03 0.03 41 1012.2
20260904232721 78 228 2.0 6.0 0.00 0.03 0.03 41 1012.1
20260904232712 78 228 2.0 6.0 0.00 0.03 0.03 41 1012.2
20260904232521 78 224 1.0 6.0 0.00 0.03 0.03 40 1012.2
20260904232421 79 239 1.0 6.0 0.00 0.03 0.03 40 1012.2
20260904232321 78 228 1.0 4.0 0.00 0.03 0.03 42 1012.2
20260904232315 79 228 1.0 4.0 0.00 0.03 0.03 42 1012.2
20260904232217 78 228 1.0 3.0 0.00 0.03 0.03 42 1012.2
20260904232209 78 228 1.0 4.0 0.00 0.03 0.03 42 1012.2
20260904232015 78 256 1.0 4.0 0.00 0.03 0.03 43 1012.2
20260904231914 78 179 1.0 4.0 0.00 0.03 0.03 42 1012.2
20260904231809 78 311 1.0 4.0 0.00 0.03 0.03 41 1012.2
20260904231710 78 310 2.0 4.0 0.00 0.03 0.03 41 1012.2
20260904231609 78 321 1.0 4.0 0.00 0.03 0.03 42 1012.3
20260904231548 78 315 1.0 4.0 0.00 0.03 0.03 42 1012.3
20260904231511 78 356 1.0 4.0 0.00 0.03 0.03 43 1012.2
20260904231409 78 355 2.0 4.0 0.00 0.03 0.03 43 1012.2
20260904231305 78 169 1.0 4.0 0.00 0.03 0.03 42 1012.3
20260904231205 78 221 2.0 5.0 0.00 0.03 0.03 42 1012.3
20260904231104 78 235 2.0 7.0 0.00 0.03 0.03 42 1012.3
20260904231041 78 217 2.0 7.0 0.00 0.03 0.03 42 1012.3
20260904231004 78 104 2.0 7.0 0.00 0.03 0.03 42 1012.3
20260904230905 78 238 3.0 7.0 0.00 0.03 0.03 42 1012.3
20260904230757 77 223 3.0 8.0 0.00 0.03 0.03 43 1012.4
20260904230658 77 150 3.0 8.0 0.00 0.03 0.03 43 1012.4
20260904230536 77 225 3.0 8.0 0.00 0.03 0.03 43 1012.4
20260904230458 77 224 4.0 8.0 0.00 0.03 0.03 43 1012.4
20260904230357 77 173 4.0 9.0 0.00 0.03 0.03 44 1012.4
20260904230253 77 243 4.0 9.0 0.00 0.03 0.03 43 1012.4
20260904230152 77 241 4.0 9.0 0.00 0.03 0.03 42 1012.4
20260904230053 77 231 4.0 9.0 0.00 0.03 0.03 42 1012.4
20260904230043 77 241 4.0 9.0 0.00 0.03 0.03 42 1012.4
20260904225952 77 252 4.0 9.0 0.00 0.03 0.03 42 1012.5
20260904225851 78 193 4.0 9.0 0.00 0.03 0.03 42 1012.4
20260904225745 78 239 3.0 9.0 0.00 0.03 0.03 42 1012.4
20260904225650 78 214 3.0 9.0 0.00 0.03 0.03 42 1012.4
20260904225545 78 231 3.0 9.0 0.00 0.03 0.03 42 1012.5
20260904225525 78 242 3.0 9.0 0.00 0.03 0.03 42 1012.5
20260904225446 78 232 3.0 9.0 0.00 0.03 0.03 43 1012.5
20260904225345 78 216 3.0 8.0 0.00 0.03 0.03 44 1012.4
20260904225242 78 208 3.0 8.0 0.00 0.03 0.03 44 1012.5
20260904225141 78 232 3.0 8.0 0.00 0.03 0.03 43 1012.4
20260904225040 78 200 3.0 8.0 0.00 0.03 0.03 44 1012.4
20260904225028 78 236 3.0 8.0 0.00 0.03 0.03 44 1012.4
20260904224940 78 355 3.0 8.0 0.00 0.03 0.03 43 1012.5
20260904224839 78 215 3.0 8.0 0.00 0.03 0.03 44 1012.4
20260904224737 78 243 2.0 8.0 0.00 0.03 0.03 43 1012.5
20260904224633 78 256 2.0 8.0 0.00 0.03 0.03 43 1012.5
20260904224534 78 229 2.0 7.0 0.00 0.03 0.03 42 1012.5
20260904224512 78 210 2.0 6.0 0.00 0.03 0.03 42 1012.5
20260904224433 78 212 2.0 6.0 0.00 0.03 0.03 42 1012.5
20260904224334 78 217 2.0 9.0 0.00 0.03 0.03 43 1012.5
20260904224234 78 215 2.0 9.0 0.00 0.03 0.03 43 1012.5
20260904224131 78 245 2.0 9.0 0.00 0.03 0.03 44 1012.5
20260904224029 78 236 3.0 14.0 0.00 0.03 0.03 43 1012.5
20260904224006 78 198 3.0 14.0 0.00 0.03 0.03 44 1012.5
20260904223930 78 250 3.0 14.0 0.00 0.03 0.03 45 1012.5
20260904223827 77 233 3.0 14.0 0.00 0.03 0.03 44 1012.5
20260904223725 77 269 3.0 14.0 0.00 0.03 0.03 44 1012.5
20260904223622 77 249 3.0 14.0 0.00 0.03 0.03 45 1012.6
20260904223522 77 250 3.0 14.0 0.00 0.03 0.03 43 1012.6
20260904223501 77 250 3.0 14.0 0.00 0.03 0.03 43 1012.6
20260904223421 78 235 3.0 14.0 0.00 0.03 0.03 44 1012.6
20260904223321 78 217 3.0 14.0 0.00 0.03 0.03 43 1012.7
20260904223220 78 211 3.0 8.0 0.00 0.03 0.03 42 1012.7
20260904223216 78 233 3.0 14.0 0.00 0.03 0.03 42 1012.6
20260904223115 78 150 3.0 14.0 0.00 0.03 0.03 42 1012.7
20260904223105 78 193 3.0 8.0 0.00 0.03 0.03 42 1012.7
20260904222916 78 197 3.0 8.0 0.00 0.03 0.03 42 1012.7
20260904222815 78 228 3.0 8.0 0.00 0.03 0.03 42 1012.6
20260904222715 78 132 3.0 8.0 0.00 0.03 0.03 42 1012.7
20260904222615 78 248 3.0 8.0 0.00 0.03 0.03 43 1012.7
20260904222513 78 249 3.0 8.0 0.00 0.03 0.03 42 1012.7
20260904222459 78 248 3.0 8.0 0.00 0.03 0.03 42 1012.7
20260904222411 78 235 3.0 8.0 0.00 0.03 0.03 41 1012.7
20260904222309 78 221 3.0 8.0 0.00 0.03 0.03 42 1012.7
20260904222205 78 181 3.0 8.0 0.00 0.03 0.03 41 1012.7
20260904222104 78 150 3.0 8.0 0.00 0.03 0.03 42 1012.7
20260904222005 78 146 3.0 8.0 0.00 0.03 0.03 42 1012.6
20260904221954 78 188 3.0 8.0 0.00 0.03 0.03 42 1012.6
20260904221905 79 231 2.0 8.0 0.00 0.03 0.03 42 1012.7
20260904221803 79 223 2.0 7.0 0.00 0.03 0.03 42 1012.7
20260904221700 79 110 2.0 6.0 0.00 0.03 0.03 42 1012.7
20260904221600 79 156 2.0 6.0 0.00 0.03 0.03 43 1012.7
20260904221505 79 194 2.0 6.0 0.00 0.03 0.03 43 1012.7
20260904221455 79 200 2.0 6.0 0.00 0.03 0.03 43 1012.7
20260904221400 79 225 2.0 6.0 0.00 0.03 0.03 43 1012.7
20260904221257 79 233 2.0 6.0 0.00 0.03 0.03 42 1012.7
20260904221152 79 262 3.0 7.0 0.00 0.03 0.03 43 1012.6
20260904221052 78 248 3.0 8.0 0.00 0.03 0.03 43 1012.7
20260904220957 78 135 3.0 8.0 0.00 0.03 0.03 43 1012.6
20260904220951 78 136 3.0 8.0 0.00 0.03 0.03 43 1012.6
20260904220852 78 119 3.0 8.0 0.00 0.03 0.03 44 1012.6
20260904220752 78 134 4.0 8.0 0.00 0.03 0.03 43 1012.6
20260904220709 77 238 4.0 8.0 0.00 0.03 0.03 44 1012.7
20260904220648 77 143 4.0 8.0 0.00 0.03 0.03 44 1012.7
20260904220603 77 161 4.0 8.0 0.00 0.03 0.03 43 1012.7
20260904220446 77 248 4.0 8.0 0.00 0.03 0.03 44 1012.7
20260904220345 77 236 4.0 8.0 0.00 0.03 0.03 44 1012.7
20260904220246 77 183 4.0 9.0 0.00 0.03 0.03 44 1012.7
20260904220142 77 117 4.0 10.0 0.00 0.03 0.03 45 1012.8
20260904220040 77 163 5.0 11.0 0.00 0.03 0.03 45 1012.7
20260904215949 77 160 5.0 11.0 0.00 0.03 0.03 44 1012.7
20260904215940 77 138 5.0 11.0 0.00 0.03 0.03 44 1012.7
20260904215839 77 197 5.0 11.0 0.00 0.03 0.03 45 1012.7
20260904215740 77 228 5.0 11.0 0.00 0.03 0.03 45 1012.7
20260904215635 77 236 5.0 11.0 0.00 0.03 0.03 45 1012.7
20260904215534 77 259 5.0 11.0 0.00 0.03 0.03 44 1012.7
20260904215449 77 195 5.0 11.0 0.00 0.03 0.03 44 1012.7
20260904215434 77 246 5.0 11.0 0.00 0.03 0.03 44 1012.7
20260904215334 77 260 4.0 11.0 0.00 0.03 0.03 44 1012.7
20260904215234 78 243 4.0 11.0 0.00 0.03 0.03 44 1012.7
20260904215128 78 245 3.0 11.0 0.00 0.03 0.03 44 1012.7
20260904215027 78 146 3.0 9.0 0.00 0.03 0.03 43 1012.7
20260904214949 78 143 2.0 9.0 0.00 0.03 0.03 44 1012.7
20260904214928 78 149 2.0 9.0 0.00 0.03 0.03 44 1012.7
20260904214828 78 187 2.0 7.0 0.00 0.03 0.03 45 1012.7
20260904214728 78 141 2.0 7.0 0.00 0.03 0.03 44 1012.7
20260904214708 78 125 1.0 6.0 0.00 0.03 0.03 46 1012.7
20260904214621 78 200 1.0 6.0 0.00 0.03 0.03 44 1012.7
20260904214557 78 142 1.0 6.0 0.00 0.03 0.03 44 1012.6
20260904214421 78 145 1.0 6.0 0.00 0.03 0.03 46 1012.7
20260904214322 78 241 1.0 6.0 0.00 0.03 0.03 45 1012.6
20260904214222 78 214 1.0 6.0 0.00 0.03 0.03 45 1012.7
20260904214118 78 191 1.0 6.0 0.00 0.03 0.03 46 1012.7
20260904214016 78 235 2.0 6.0 0.00 0.03 0.03 46 1012.7
20260904213946 78 225 2.0 6.0 0.00 0.03 0.03 46 1012.7
20260904213915 78 219 2.0 6.0 0.00 0.03 0.03 46 1012.7
20260904213816 78 232 2.0 7.0 0.00 0.03 0.03 46 1012.7
20260904213716 78 226 3.0 7.0 0.00 0.03 0.03 47 1012.8
20260904213610 78 228 2.0 8.0 0.00 0.03 0.03 47 1012.8
20260904213510 77 230 3.0 8.0 0.00 0.03 0.03 47 1012.8
20260904213447 77 229 3.0 8.0 0.00 0.03 0.03 47 1012.8
20260904213409 77 245 2.0 8.0 0.00 0.03 0.03 47 1012.8
20260904213310 77 266 2.0 8.0 0.00 0.03 0.03 46 1012.8
20260904213210 77 232 2.0 8.0 0.00 0.03 0.03 47 1012.7
20260904213103 77 291 2.0 8.0 0.00 0.03 0.03 47 1012.8
20260904213004 77 222 2.0 8.0 0.00 0.03 0.03 47 1012.7
20260904212944 77 256 2.0 8.0 0.00 0.03 0.03 47 1012.7
20260904212904 77 123 2.0 8.0 0.00 0.03 0.03 47 1012.8
20260904212804 77 207 2.0 8.0 0.00 0.03 0.03 47 1012.8
20260904212704 77 233 2.0 7.0 0.00 0.03 0.03 47 1012.7
20260904212602 77 271 2.0 6.0 0.00 0.03 0.03 48 1012.7
20260904212501 77 252 2.0 6.0 0.00 0.03 0.03 49 1012.7
20260904212445 77 210 2.0 6.0 0.00 0.03 0.03 49 1012.7
20260904212402 77 321 2.0 6.0 0.00 0.03 0.03 48 1012.7
20260904212300 77 345 2.0 6.0 0.00 0.03 0.03 49 1012.7
20260904212158 77 315 2.0 6.0 0.00 0.03 0.03 48 1012.7
20260904212051 77 40 2.0 6.0 0.00 0.03 0.03 47 1012.8
20260904211958 77 103 2.0 6.0 0.00 0.03 0.03 47 1012.8
20260904211948 77 70 2.0 6.0 0.00 0.03 0.03 47 1012.8
20260904211852 77 236 2.0 6.0 0.00 0.03 0.03 47 1012.8
20260904211751 78 215 2.0 6.0 0.00 0.03 0.03 47 1012.8
20260904211652 78 212 1.0 5.0 0.00 0.03 0.03 47 1012.8
20260904211549 77 102 1.0 5.0 0.00 0.03 0.03 48 1012.8
20260904211449 77 114 1.0 5.0 0.00 0.03 0.03 49 1012.8
20260904211347 76 138 1.0 4.0 0.00 0.03 0.03 49 1012.8
20260904211248 76 136 2.0 6.0 0.00 0.03 0.03 49 1012.8
20260904211148 76 217 2.0 6.0 0.00 0.03 0.03 49 1012.7
20260904211040 76 230 2.0 6.0 0.00 0.03 0.03 49 1012.7
20260904210945 76 286 3.0 7.0 0.00 0.03 0.03 50 1012.8
20260904210939 76 287 3.0 7.0 0.00 0.03 0.03 50 1012.8
20260904210840 76 308 3.0 7.0 0.00 0.03 0.03 50 1012.8
20260904210741 76 195 3.0 7.0 0.00 0.03 0.03 50 1012.8
20260904210708 75 146 4.0 7.0 0.00 0.03 0.03 51 1012.9
20260904210639 76 242 3.0 7.0 0.00 0.03 0.03 50 1012.8
20260904210533 75 250 4.0 7.0 0.00 0.03 0.03 51 1012.9
20260904210434 75 114 4.0 8.0 0.00 0.03 0.03 51 1012.9
20260904210335 75 153 4.0 8.0 0.00 0.03 0.03 50 1012.9
20260904210234 75 231 4.0 8.0 0.00 0.03 0.03 50 1012.9
20260904210132 75 232 3.0 8.0 0.00 0.03 0.03 49 1012.9
20260904210026 76 248 3.0 8.0 0.00 0.03 0.03 49 1012.9
20260904205944 76 221 3.0 8.0 0.00 0.03 0.03 49 1012.9
20260904205925 76 242 3.0 8.0 0.00 0.03 0.03 49 1012.9
20260904205826 76 253 3.0 8.0 0.00 0.03 0.03 48 1012.9
20260904205727 76 214 3.0 9.0 0.00 0.03 0.03 48 1012.8
20260904205658 77 259 2.0 9.0 0.00 0.03 0.03 47 1012.8
20260904205623 76 172 3.0 9.0 0.00 0.03 0.03 48 1012.8
20260904205549 77 234 3.0 9.0 0.00 0.03 0.03 47 1012.8
20260904205418 77 236 2.0 9.0 0.00 0.03 0.03 48 1012.8
20260904205317 77 139 2.0 9.0 0.00 0.03 0.03 47 1012.8
20260904205217 77 232 2.0 9.0 0.00 0.03 0.03 47 1012.8
20260904205117 78 238 2.0 9.0 0.00 0.03 0.03 46 1012.9
20260904204932 78 239 2.0 9.0 0.00 0.03 0.03 45 1012.9
20260904204914 79 195 2.0 9.0 0.00 0.03 0.03 45 1012.9
20260904204814 79 214 2.0 8.0 0.00 0.03 0.03 45 1012.8
20260904204714 79 235 2.0 6.0 0.00 0.03 0.03 46 1012.8
20260904204652 78 121 2.0 10.0 0.00 0.03 0.03 47 1012.8
20260904204612 79 226 2.0 6.0 0.00 0.03 0.03 46 1012.8
20260904204539 78 240 2.0 10.0 0.00 0.03 0.03 47 1012.8
20260904204405 78 138 2.0 10.0 0.00 0.03 0.03 47 1012.8
20260904204305 78 135 3.0 10.0 0.00 0.03 0.03 47 1012.8
20260904204206 77 20 3.0 10.0 0.00 0.03 0.03 47 1012.9
20260904204141 77 129 3.0 10.0 0.00 0.03 0.03 48 1012.9
20260904204105 77 175 3.0 10.0 0.00 0.03 0.03 48 1012.9
20260904203904 77 239 3.0 10.0 0.00 0.03 0.03 49 1012.9
20260904203800 76 143 3.0 10.0 0.00 0.03 0.03 49 1012.9
20260904203700 76 146 2.0 10.0 0.00 0.03 0.03 49 1012.9
20260904203559 76 143 2.0 10.0 0.00 0.03 0.03 49 1012.9
20260904203454 76 153 2.0 7.0 0.00 0.03 0.03 49 1012.9
20260904203414 76 108 2.0 7.0 0.00 0.03 0.03 49 1013.0
20260904203353 76 49 2.0 7.0 0.00 0.03 0.03 50 1013.0
20260904203255 76 238 2.0 7.0 0.00 0.03 0.03 50 1012.9
20260904203154 76 186 2.0 7.0 0.00 0.03 0.03 50 1012.9
20260904203134 76 43 2.0 6.0 0.00 0.03 0.03 50 1012.9
20260904203052 76 183 1.0 7.0 0.00 0.03 0.03 50 1012.9
20260904203019 76 206 2.0 6.0 0.00 0.03 0.03 50 1012.9
20260904202848 76 43 2.0 6.0 0.00 0.03 0.03 50 1012.9
20260904202747 76 146 2.0 6.0 0.00 0.03 0.03 51 1012.9
20260904202649 75 147 2.0 6.0 0.00 0.03 0.03 51 1012.9
20260904202548 75 146 2.0 6.0 0.00 0.03 0.03 50 1012.9
20260904202444 75 146 2.0 6.0 0.00 0.03 0.03 50 1012.9
20260904202403 75 146 2.0 6.0 0.00 0.03 0.03 50 1013.0
20260904202342 75 146 2.0 6.0 0.00 0.03 0.03 51 1013.0
20260904202242 75 148 2.0 6.0 0.00 0.03 0.03 51 1012.9
20260904202143 75 204 2.0 6.0 0.00 0.03 0.03 51 1012.9
20260904202041 75 252 2.0 6.0 0.00 0.03 0.03 51 1013.0
20260904201940 75 174 1.0 6.0 0.00 0.03 0.03 51 1012.9
20260904201905 75 215 1.0 5.0 0.00 0.03 0.03 51 1013.0
20260904201840 75 226 1.0 5.0 0.00 0.03 0.03 52 1013.0
20260904201740 75 284 2.0 5.0 0.00 0.03 0.03 52 1012.9
20260904201638 75 284 2.0 5.0 0.00 0.03 0.03 53 1013.0
20260904201536 75 285 2.0 6.0 0.00 0.03 0.03 53 1013.0
20260904201432 74 145 2.0 6.0 0.00 0.03 0.03 52 1013.0
20260904201354 74 148 2.0 6.0 0.00 0.03 0.03 52 1013.0
20260904201330 74 139 2.0 6.0 0.00 0.03 0.03 52 1013.0
20260904201230 74 148 2.0 6.0 0.00 0.03 0.03 53 1013.0
20260904201129 74 222 2.0 6.0 0.00 0.03 0.03 54 1013.0
20260904201107 75 243 2.0 6.0 0.00 0.03 0.03 53 1013.0
20260904201029 74 235 2.0 6.0 0.00 0.03 0.03 54 1013.0
20260904200958 74 226 2.0 6.0 0.00 0.03 0.03 53 1013.0
20260904200824 75 236 2.0 6.0 0.00 0.03 0.03 52 1013.0
20260904200724 75 228 2.0 6.0 0.00 0.03 0.03 52 1012.9
20260904200624 75 143 2.0 6.0 0.00 0.03 0.03 53 1013.0
20260904200523 75 248 1.0 6.0 0.00 0.03 0.03 53 1013.0
20260904200421 75 211 1.0 6.0 0.00 0.03 0.03 53 1013.0
20260904200338 75 255 1.0 6.0 0.00 0.03 0.03 53 1013.0
20260904200322 75 239 1.0 6.0 0.00 0.03 0.03 53 1013.0
20260904200222 75 232 1.0 6.0 0.00 0.03 0.03 54 1013.0
20260904200120 75 219 1.0 3.0 0.00 0.03 0.03 53 1013.0
20260904200018 75 215 1.0 3.0 0.00 0.03 0.03 53 1013.0
20260904195912 75 185 1.0 3.0 0.00 0.03 0.03 53 1013.0
20260904195833 75 280 1.0 3.0 0.00 0.03 0.03 54 1013.0
20260904195812 75 311 1.0 3.0 0.00 0.03 0.03 55 1013.0
20260904195712 74 332 1.0 3.0 0.00 0.03 0.03 55 1013.1
20260904195612 74 334 1.0 3.0 0.00 0.03 0.03 55 1013.1
20260904195511 75 335 1.0 3.0 0.00 0.03 0.03 54 1013.1
20260904195407 75 330 1.0 3.0 0.00 0.03 0.03 53 1013.0
20260904195326 75 330 1.0 3.0 0.00 0.03 0.03 54 1013.0
20260904195306 75 326 1.0 3.0 0.00 0.03 0.03 55 1013.1
20260904195206 75 328 1.0 3.0 0.00 0.03 0.03 55 1013.1
20260904195106 75 330 1.0 3.0 0.00 0.03 0.03 54 1013.1
20260904195005 75 321 1.0 3.0 0.00 0.03 0.03 54 1013.1
20260904194905 75 321 1.0 4.0 0.00 0.03 0.03 53 1013.1
20260904194833 75 321 1.0 5.0 0.00 0.03 0.03 53 1013.1
20260904194803 75 321 1.0 6.0 0.00 0.03 0.03 53 1013.1
20260904194704 75 321 1.0 6.0 0.00 0.03 0.03 52 1013.2
20260904194601 75 321 2.0 6.0 0.00 0.03 0.03 52 1013.1
20260904194459 75 321 2.0 6.0 0.00 0.03 0.03 52 1013.2
20260904194400 76 321 2.0 6.0 0.00 0.03 0.03 52 1013.2
20260904194314 76 321 2.0 6.0 0.00 0.03 0.03 52 1013.2
20260904194258 76 321 2.0 6.0 0.00 0.03 0.03 52 1013.2
20260904194158 75 228 2.0 6.0 0.00 0.03 0.03 53 1013.2
20260904194056 75 228 2.0 6.0 0.00 0.03 0.03 52 1013.3
20260904193953 75 228 2.0 6.0 0.00 0.03 0.03 53 1013.3
20260904193851 75 172 2.0 6.0 0.00 0.03 0.03 52 1013.3
20260904193811 75 193 1.0 5.0 0.00 0.03 0.03 52 1013.2
20260904193752 75 208 1.0 5.0 0.00 0.03 0.03 52 1013.2
20260904193653 76 219 1.0 7.0 0.00 0.03 0.03 52 1013.2
20260904193550 76 229 1.0 7.0 0.00 0.03 0.03 51 1013.3
20260904193447 76 221 1.0 7.0 0.00 0.03 0.03 54 1013.3
20260904193342 76 287 1.0 7.0 0.00 0.03 0.03 53 1013.3
20260904193303 76 287 1.0 7.0 0.00 0.03 0.03 54 1013.3
20260904193242 76 300 1.0 7.0 0.00 0.03 0.03 54 1013.3
20260904193145 76 298 1.0 7.0 0.00 0.03 0.03 53 1013.3
20260904193041 76 284 1.0 7.0 0.00 0.03 0.03 54 1013.3
20260904192941 76 284 1.0 7.0 0.00 0.03 0.03 53 1013.3
20260904192842 76 283 1.0 7.0 0.00 0.03 0.03 52 1013.3
20260904192757 76 283 1.0 7.0 0.00 0.03 0.03 52 1013.3
20260904192740 76 281 1.0 7.0 0.00 0.03 0.03 52 1013.3
20260904192637 76 212 1.0 5.0 0.00 0.03 0.03 51 1013.3
20260904192538 76 314 1.0 4.0 0.00 0.03 0.03 53 1013.3
20260904192435 76 29 1.0 4.0 0.00 0.03 0.03 52 1013.3
20260904192336 76 148 1.0 4.0 0.00 0.03 0.03 51 1013.3
20260904192252 76 212 1.0 4.0 0.00 0.03 0.03 53 1013.3
20260904192234 76 225 1.0 4.0 0.00 0.03 0.03 53 1013.3
20260904192132 75 229 1.0 6.0 0.00 0.03 0.03 52 1013.3
20260904192031 76 243 1.0 6.0 0.00 0.03 0.03 53 1013.3
20260904191930 76 219 1.0 6.0 0.00 0.03 0.03 53 1013.4
20260904191828 76 211 1.0 6.0 0.00 0.03 0.03 54 1013.4
20260904191728 75 211 2.0 6.0 0.00 0.03 0.03 55 1013.4
20260904191628 75 201 2.0 6.0 0.00 0.03 0.03 55 1013.4
20260904191526 75 148 2.0 6.0 0.00 0.03 0.03 55 1013.4
20260904191423 75 148 2.0 6.0 0.00 0.03 0.03 54 1013.4
20260904191317 75 205 2.0 6.0 0.00 0.03 0.03 54 1013.4
20260904191239 75 237 2.0 6.0 0.00 0.03 0.03 54 1013.4
20260904191218 75 238 2.0 6.0 0.00 0.03 0.03 54 1013.4
20260904191117 74 232 2.0 7.0 0.00 0.03 0.03 57 1013.4
20260904191018 74 257 2.0 7.0 0.00 0.03 0.03 57 1013.4
20260904190918 74 225 2.0 7.0 0.00 0.03 0.03 57 1013.4
20260904190812 74 210 2.0 7.0 0.00 0.03 0.03 56 1013.4
20260904190732 74 232 1.0 7.0 0.00 0.03 0.03 58 1013.4
20260904190713 74 311 1.0 7.0 0.00 0.03 0.03 58 1013.4
20260904190612 74 311 1.0 7.0 0.00 0.03 0.03 58 1013.4
20260904190511 74 222 1.0 7.0 0.00 0.03 0.03 59 1013.4
20260904190448 74 325 2.0 7.0 0.00 0.03 0.03 56 1013.4
20260904190411 74 342 2.0 7.0 0.00 0.03 0.03 57 1013.4
20260904190305 74 12 2.0 7.0 0.00 0.03 0.03 56 1013.4
20260904190206 75 314 1.0 7.0 0.00 0.03 0.03 56 1013.4
20260904190105 74 266 2.0 5.0 0.00 0.03 0.03 59 1013.5
20260904190006 74 154 2.0 5.0 0.00 0.03 0.03 60 1013.4
20260904185905 74 221 2.0 5.0 0.00 0.03 0.03 61 1013.4
20260904185800 73 239 2.0 5.0 0.00 0.03 0.03 60 1013.4
20260904185721 73 307 2.0 5.0 0.00 0.03 0.03 60 1013.4
20260904185701 73 307 3.0 8.0 0.00 0.03 0.03 60 1013.4
20260904185600 73 321 3.0 8.0 0.00 0.03 0.03 59 1013.5
20260904185500 73 52 3.0 8.0 0.00 0.03 0.03 58 1013.5
20260904185359 73 74 3.0 8.0 0.00 0.03 0.03 58 1013.5
20260904185257 73 72 3.0 8.0 0.00 0.03 0.03 58 1013.5
20260904185214 73 138 3.0 8.0 0.00 0.03 0.03 59 1013.5
20260904185159 73 158 3.0 8.0 0.00 0.03 0.03 59 1013.5
20260904185057 73 239 2.0 8.0 0.00 0.03 0.03 58 1013.5
20260904184955 74 136 2.0 8.0 0.00 0.03 0.03 58 1013.6
20260904184857 74 212 2.0 8.0 0.00 0.03 0.03 58 1013.6
20260904184747 74 217 2.0 8.0 0.00 0.03 0.03 58 1013.5
20260904184709 74 204 2.0 7.0 0.00 0.03 0.03 58 1013.5
20260904184648 74 208 2.0 7.0 0.00 0.03 0.03 58 1013.5
20260904184548 74 153 1.0 6.0 0.00 0.03 0.03 58 1013.6
20260904184448 74 131 1.0 6.0 0.00 0.03 0.03 58 1013.5
20260904184347 73 195 1.0 6.0 0.00 0.03 0.03 59 1013.6
20260904184248 73 149 2.0 6.0 0.00 0.03 0.03 58 1013.6
20260904184202 73 149 2.0 6.0 0.00 0.03 0.03 58 1013.6
20260904184147 73 149 2.0 6.0 0.00 0.03 0.03 58 1013.6
20260904184046 73 193 2.0 6.0 0.00 0.03 0.03 59 1013.6
20260904183943 73 193 2.0 6.0 0.00 0.03 0.03 59 1013.6
20260904183918 72 146 1.0 6.0 0.00 0.03 0.03 63 1013.6
20260904183842 72 146 1.0 6.0 0.00 0.03 0.03 62 1013.6
20260904183808 72 148 1.0 6.0 0.00 0.03 0.03 63 1013.6
20260904183635 71 146 1.0 6.0 0.00 0.03 0.03 63 1013.6
20260904183536 71 165 1.0 6.0 0.00 0.03 0.03 63 1013.7
20260904183436 71 228 1.0 6.0 0.00 0.03 0.03 62 1013.6
20260904183335 71 203 0.0 3.0 0.00 0.03 0.03 63 1013.6
20260904183229 71 163 0.0 2.0 0.00 0.03 0.03 62 1013.7
20260904183151 71 165 1.0 4.0 0.00 0.03 0.03 62 1013.7
20260904183129 71 253 1.0 4.0 0.00 0.03 0.03 62 1013.7
20260904183029 71 253 1.0 5.0 0.00 0.03 0.03 63 1013.7
20260904182930 71 243 1.0 6.0 0.00 0.03 0.03 64 1013.7
20260904182829 71 242 1.0 6.0 0.00 0.03 0.03 64 1013.7
20260904182728 71 242 1.0 6.0 0.00 0.03 0.03 64 1013.7
20260904182648 71 241 1.0 6.0 0.00 0.03 0.03 64 1013.6
20260904182633 72 176 1.0 6.0 0.00 0.03 0.03 62 1013.7
20260904182627 71 242 1.0 6.0 0.00 0.03 0.03 64 1013.6
20260904182528 71 240 1.0 6.0 0.00 0.03 0.03 63 1013.6
20260904182517 71 242 1.0 6.0 0.00 0.03 0.03 63 1013.7
20260904182323 71 173 1.0 6.0 0.00 0.03 0.03 64 1013.6
20260904182220 72 194 1.0 6.0 0.00 0.03 0.03 62 1013.6
20260904182120 72 231 1.0 6.0 0.00 0.03 0.03 62 1013.7
20260904182019 72 243 0.0 6.0 0.00 0.03 0.03 64 1013.6
20260904181920 72 233 0.0 2.0 0.00 0.03 0.03 64 1013.6
20260904181817 72 233 0.0 2.0 0.00 0.03 0.03 64 1013.6
20260904181712 72 232 1.0 3.0 0.00 0.03 0.03 63 1013.6
20260904181647 72 233 1.0 3.0 0.00 0.03 0.03 63 1013.6
20260904181611 72 232 1.0 3.0 0.00 0.03 0.03 63 1013.6
20260904181512 72 233 1.0 3.0 0.00 0.03 0.03 64 1013.6
20260904181411 72 232 1.0 3.0 0.00 0.03 0.03 64 1013.6
20260904181311 72 232 1.0 3.0 0.00 0.03 0.03 64 1013.6
20260904181210 72 233 2.0 3.0 0.00 0.03 0.03 64 1013.7
20260904181154 72 113 2.0 6.0 0.00 0.03 0.03 63 1013.6
20260904181148 72 232 2.0 3.0 0.00 0.03 0.03 64 1013.7
20260904181110 72 119 2.0 3.0 0.00 0.03 0.03 62 1013.6
20260904181026 72 118 2.0 4.0 0.00 0.03 0.03 62 1013.6
20260904180908 72 105 2.0 6.0 0.00 0.03 0.03 62 1013.7
20260904180805 72 130 2.0 6.0 0.00 0.03 0.03 61 1013.7
20260904180757 72 131 2.0 6.0 0.00 0.03 0.03 63 1013.6
20260904180602 72 201 2.0 6.0 0.00 0.03 0.03 63 1013.6
20260904180501 72 124 2.0 6.0 0.00 0.03 0.03 63 1013.6
20260904180402 72 103 2.0 6.0 0.00 0.03 0.03 63 1013.7
20260904180300 72 103 2.0 6.0 0.00 0.03 0.03 63 1013.7
20260904180145 71 142 2.0 6.0 0.00 0.03 0.03 65 1013.7
20260904180058 71 121 1.0 6.0 0.00 0.03 0.03 65 1013.7
20260904175957 71 145 1.0 6.0 0.00 0.03 0.03 66 1013.7
20260904175855 71 113 2.0 5.0 0.00 0.03 0.03 66 1013.7
20260904175753 70 245 2.0 6.0 0.00 0.03 0.03 65 1013.7
20260904175649 70 235 2.0 6.0 0.00 0.03 0.03 67 1013.7
20260904175548 70 155 2.0 6.0 0.00 0.03 0.03 67 1013.7
20260904175447 70 117 2.0 6.0 0.00 0.03 0.03 68 1013.7
20260904175347 69 150 2.0 6.0 0.00 0.03 0.03 68 1013.7
20260904175247 69 134 1.0 6.0 0.00 0.03 0.03 68 1013.8
20260904175150 69 226 1.0 6.0 0.00 0.03 0.03 68 1013.7
20260904175045 69 141 1.0 6.0 0.00 0.03 0.03 68 1013.8
20260904174943 69 142 1.0 6.0 0.00 0.03 0.03 68 1013.8
20260904174844 69 149 1.0 6.0 0.00 0.03 0.03 68 1013.8
20260904174741 69 205 1.0 5.0 0.00 0.03 0.03 68 1013.8
20260904174704 69 225 1.0 5.0 0.00 0.03 0.03 69 1013.8
20260904174644 69 224 1.0 5.0 0.00 0.03 0.03 69 1013.8
20260904174540 69 131 1.0 5.0 0.00 0.03 0.03 68 1013.8
20260904174440 69 131 1.0 5.0 0.00 0.03 0.03 68 1013.8
20260904174338 69 120 1.0 5.0 0.00 0.03 0.03 68 1013.8
20260904174235 69 120 1.0 5.0 0.00 0.03 0.03 68 1013.7
20260904174136 69 88 1.0 5.0 0.00 0.03 0.03 68 1013.7
20260904174034 69 165 1.0 5.0 0.00 0.03 0.03 68 1013.8
20260904173931 69 165 1.0 5.0 0.00 0.03 0.03 69 1013.8
20260904173832 69 158 1.0 4.0 0.00 0.03 0.03 69 1013.7
20260904173729 69 150 1.0 4.0 0.00 0.03 0.03 70 1013.8
20260904173644 68 160 1.0 3.0 0.00 0.03 0.03 72 1013.8
20260904173630 68 143 1.0 3.0 0.00 0.03 0.03 72 1013.8
20260904173528 68 191 1.0 3.0 0.00 0.03 0.03 73 1013.8
20260904173427 67 208 1.0 3.0 0.00 0.03 0.03 73 1013.8
20260904173325 67 208 1.0 3.0 0.00 0.03 0.03 72 1013.8
20260904173223 67 233 2.0 3.0 0.00 0.03 0.03 73 1013.8
20260904173142 67 233 2.0 3.0 0.00 0.03 0.03 72 1013.8
20260904173117 67 231 2.0 3.0 0.00 0.03 0.03 72 1013.7
20260904173018 66 223 2.0 4.0 0.00 0.03 0.03 74 1013.7
20260904172918 66 228 2.0 4.0 0.00 0.03 0.03 74 1013.7
20260904172817 66 232 2.0 4.0 0.00 0.03 0.03 74 1013.8
20260904172716 66 231 2.0 4.0 0.00 0.03 0.03 73 1013.7
20260904172640 66 208 2.0 5.0 0.00 0.03 0.03 73 1013.7
20260904172612 66 228 3.0 5.0 0.00 0.03 0.03 73 1013.7
20260904172511 66 207 3.0 5.0 0.00 0.03 0.03 73 1013.7
20260904172412 66 225 3.0 5.0 0.00 0.03 0.03 73 1013.7
20260904172311 66 221 3.0 5.0 0.00 0.03 0.03 73 1013.7
20260904172211 66 234 3.0 5.0 0.00 0.03 0.03 73 1013.6
20260904172144 66 231 2.0 5.0 0.00 0.03 0.03 73 1013.6
20260904172107 66 229 2.0 5.0 0.00 0.03 0.03 73 1013.7
20260904172006 66 235 2.0 5.0 0.00 0.03 0.03 73 1013.6
20260904171906 67 139 2.0 5.0 0.00 0.03 0.03 73 1013.6
20260904171806 67 212 2.0 5.0 0.00 0.03 0.03 72 1013.6
20260904171705 67 253 2.0 5.0 0.00 0.03 0.03 72 1013.6
20260904171641 67 193 2.0 5.0 0.00 0.03 0.03 72 1013.6
20260904171602 67 236 1.0 5.0 0.00 0.03 0.03 72 1013.6
20260904171501 67 243 1.0 5.0 0.00 0.03 0.03 73 1013.6
20260904171407 68 183 1.0 3.0 0.00 0.03 0.03 71 1013.6
20260904171401 68 226 1.0 3.0 0.00 0.03 0.03 72 1013.6
20260904171301 68 226 1.0 3.0 0.00 0.03 0.03 72 1013.6
20260904171159 68 197 1.0 3.0 0.00 0.03 0.03 72 1013.6
20260904171058 68 226 1.0 3.0 0.00 0.03 0.03 71 1013.5
20260904170957 68 149 1.0 3.0 0.00 0.03 0.03 72 1013.6
20260904170858 68 149 1.0 4.0 0.00 0.03 0.03 72 1013.6
20260904170756 68 149 1.0 4.0 0.00 0.03 0.03 72 1013.5
20260904170656 68 150 1.0 4.0 0.00 0.03 0.03 72 1013.6
20260904170636 68 139 1.0 5.0 0.00 0.03 0.03 72 1013.6
20260904170555 68 122 2.0 5.0 0.00 0.03 0.03 73 1013.6
20260904170457 67 201 2.0 6.0 0.00 0.03 0.03 73 1013.6
20260904170356 67 184 2.0 6.0 0.00 0.03 0.03 74 1013.6
20260904170254 67 115 2.0 6.0 0.00 0.03 0.03 75 1013.5
20260904170133 67 115 2.0 6.0 0.00 0.03 0.03 73 1013.6
20260904170053 67 108 2.0 6.0 0.00 0.03 0.03 73 1013.6
20260904165954 67 115 2.0 6.0 0.00 0.03 0.03 73 1013.6
20260904165853 66 134 2.0 6.0 0.00 0.03 0.03 74 1013.6
20260904165752 66 160 2.0 6.0 0.00 0.03 0.03 74 1013.6
20260904165652 66 111 1.0 6.0 0.00 0.03 0.03 74 1013.5
20260904165631 66 106 1.0 6.0 0.00 0.03 0.03 74 1013.5
20260904165552 67 134 1.0 6.0 0.00 0.03 0.03 74 1013.6
20260904165453 67 139 1.0 4.0 0.00 0.03 0.03 75 1013.6
20260904165356 67 140 1.0 4.0 0.00 0.03 0.03 75 1013.5
20260904165351 67 229 1.0 4.0 0.00 0.03 0.03 74 1013.5
20260904165251 67 232 1.0 4.0 0.00 0.03 0.03 75 1013.5
20260904165242 67 139 1.0 4.0 0.00 0.03 0.03 75 1013.5
20260904165052 67 158 1.0 4.0 0.00 0.03 0.03 76 1013.5
20260904164951 66 158 1.0 5.0 0.00 0.03 0.03 76 1013.5
20260904164850 66 231 1.0 5.0 0.00 0.03 0.03 75 1013.5
20260904164750 66 230 1.0 5.0 0.00 0.03 0.03 76 1013.4
20260904164650 67 230 1.0 5.0 0.00 0.03 0.03 75 1013.5
20260904164625 67 231 1.0 5.0 0.00 0.03 0.03 75 1013.5
20260904164548 67 231 1.0 5.0 0.00 0.03 0.03 76 1013.4
20260904164445 67 231 1.0 5.0 0.00 0.03 0.03 76 1013.4
20260904164342 67 246 1.0 5.0 0.00 0.03 0.03 77 1013.4
20260904164240 66 246 2.0 6.0 0.00 0.03 0.03 77 1013.4
20260904164143 66 146 2.0 6.0 0.00 0.03 0.03 77 1013.4
20260904164119 66 155 2.0 6.0 0.00 0.03 0.03 77 1013.4
20260904164040 66 110 1.0 6.0 0.00 0.03 0.03 77 1013.4
20260904163939 66 155 1.0 6.0 0.00 0.03 0.03 78 1013.4
20260904163833 66 143 1.0 6.0 0.00 0.03 0.03 78 1013.4
20260904163812 64 129 1.0 4.0 0.00 0.03 0.03 80 1013.4
20260904163734 65 129 1.0 6.0 0.00 0.03 0.03 79 1013.4
20260904163707 65 129 2.0 6.0 0.00 0.03 0.03 79 1013.4
20260904163657 65 122 2.0 6.0 0.00 0.03 0.03 79 1013.4
20260904163534 65 109 2.0 6.0 0.00 0.03 0.03 79 1013.4
20260904163444 65 146 1.0 6.0 0.00 0.03 0.03 79 1013.4
20260904163330 65 135 1.0 6.0 0.00 0.03 0.03 80 1013.5
20260904163229 64 137 1.0 4.0 0.00 0.03 0.03 80 1013.5
20260904163217 64 128 1.0 4.0 0.00 0.03 0.03 80 1013.5
20260904163030 64 228 1.0 4.0 0.00 0.03 0.03 79 1013.4
20260904162927 64 242 1.0 4.0 0.00 0.03 0.03 80 1013.5
20260904162828 64 215 1.0 8.0 0.00 0.03 0.03 81 1013.3
20260904162824 64 150 1.0 4.0 0.00 0.03 0.03 80 1013.5
20260904162722 64 222 1.0 4.0 0.00 0.03 0.03 80 1013.4
20260904162711 64 148 1.0 8.0 0.00 0.03 0.03 81 1013.4
20260904162521 64 137 1.0 8.0 0.00 0.03 0.03 81 1013.3
20260904162422 64 153 1.0 8.0 0.00 0.03 0.03 81 1013.3
20260904162316 64 154 1.0 8.0 0.00 0.03 0.03 80 1013.3
20260904162216 64 154 1.0 8.0 0.00 0.03 0.03 80 1013.3
20260904162115 64 134 2.0 8.0 0.00 0.03 0.03 79 1013.3
20260904162055 64 134 2.0 8.0 0.00 0.03 0.03 79 1013.3
20260904162016 64 236 2.0 8.0 0.00 0.03 0.03 80 1013.3
20260904161915 64 238 2.0 8.0 0.00 0.03 0.03 79 1013.3
20260904161818 65 231 2.0 8.0 0.00 0.03 0.03 80 1013.3
20260904161810 65 194 2.0 8.0 0.00 0.03 0.03 78 1013.3
20260904161709 65 232 2.0 8.0 0.00 0.03 0.03 78 1013.3
20260904161700 65 235 2.0 8.0 0.00 0.03 0.03 79 1013.3
20260904161510 65 226 2.0 8.0 0.00 0.03 0.03 80 1013.2
20260904161409 65 226 2.0 8.0 0.00 0.03 0.03 81 1013.3
20260904161304 65 226 2.0 8.0 0.00 0.03 0.03 80 1013.2
20260904161205 65 225 2.0 8.0 0.00 0.03 0.03 80 1013.3
20260904161103 65 190 3.0 8.0 0.00 0.03 0.03 80 1013.2
20260904161043 65 248 3.0 8.0 0.00 0.03 0.03 80 1013.2
20260904161004 65 207 2.0 8.0 0.00 0.03 0.03 81 1013.2
20260904160903 64 167 2.0 6.0 0.00 0.03 0.03 81 1013.2
20260904160800 64 200 2.0 5.0 0.00 0.03 0.03 81 1013.2
20260904160701 64 143 2.0 5.0 0.00 0.03 0.03 81 1013.1
20260904160600 64 168 2.0 5.0 0.00 0.03 0.03 81 1013.2
20260904160537 64 210 2.0 5.0 0.00 0.03 0.03 82 1013.2
20260904160459 64 124 2.0 5.0 0.00 0.03 0.03 82 1013.2
20260904160357 64 129 2.0 5.0 0.00 0.03 0.03 83 1013.2
20260904160252 64 152 2.0 5.0 0.00 0.03 0.03 83 1013.2
20260904160152 64 139 2.0 5.0 0.00 0.03 0.03 83 1013.2
20260904160053 64 144 2.0 5.0 0.00 0.03 0.03 83 1013.2
20260904160043 63 137 2.0 5.0 0.00 0.03 0.03 83 1013.2
20260904155951 63 136 2.0 5.0 0.00 0.03 0.03 83 1013.2
20260904155852 63 177 3.0 5.0 0.00 0.03 0.03 83 1013.2
20260904155746 63 179 3.0 6.0 0.00 0.03 0.03 83 1013.2
20260904155647 63 225 2.0 6.0 0.00 0.03 0.03 84 1013.3
20260904155545 63 195 3.0 6.0 0.00 0.03 0.03 85 1013.2
20260904155525 63 205 3.0 6.0 0.00 0.03 0.03 85 1013.2
20260904155446 63 212 3.0 6.0 0.00 0.03 0.03 85 1013.2
20260904155346 63 211 3.0 6.0 0.00 0.03 0.03 84 1013.2
20260904155249 62 242 3.0 6.0 0.00 0.03 0.03 84 1013.2
20260904155241 63 211 3.0 6.0 0.00 0.03 0.03 84 1013.3
20260904155144 63 229 3.0 6.0 0.00 0.03 0.03 84 1013.2
20260904155129 62 239 3.0 6.0 0.00 0.03 0.03 84 1013.2
20260904154940 62 217 3.0 6.0 0.00 0.03 0.03 84 1013.2
20260904154843 62 215 3.0 6.0 0.00 0.03 0.03 84 1013.2
20260904154735 62 236 3.0 6.0 0.00 0.03 0.03 85 1013.2
20260904154639 62 174 3.0 6.0 0.00 0.03 0.03 85 1013.2
20260904154534 62 224 3.0 6.0 0.00 0.03 0.03 84 1013.2
20260904154512 62 214 3.0 6.0 0.00 0.03 0.03 85 1013.2
20260904154434 62 154 2.0 5.0 0.00 0.03 0.03 85 1013.2
20260904154333 62 129 3.0 5.0 0.00 0.03 0.03 84 1013.2
20260904154229 62 238 3.0 6.0 0.00 0.03 0.03 85 1013.2
20260904154128 62 205 2.0 6.0 0.00 0.03 0.03 84 1013.2
20260904154028 62 190 2.0 6.0 0.00 0.03 0.03 84 1013.2
20260904154006 62 217 2.0 6.0 0.00 0.03 0.03 84 1013.2
20260904153927 62 224 2.0 6.0 0.00 0.03 0.03 84 1013.2
20260904153828 62 175 2.0 6.0 0.00 0.03 0.03 85 1013.1
20260904153723 62 152 2.0 6.0 0.00 0.03 0.03 85 1013.1
20260904153621 62 117 2.0 6.0 0.00 0.03 0.03 85 1013.2
20260904153522 62 134 2.0 6.0 0.00 0.03 0.03 85 1013.2
20260904153501 62 167 2.0 6.0 0.00 0.03 0.03 84 1013.2
20260904153422 62 188 2.0 6.0 0.00 0.03 0.03 84 1013.2
20260904153321 62 210 2.0 6.0 0.00 0.03 0.03 85 1013.1
20260904153216 62 260 2.0 6.0 0.00 0.03 0.03 86 1013.2
20260904153115 62 129 2.0 6.0 0.00 0.03 0.03 86 1013.1
20260904153016 62 143 2.0 6.0 0.00 0.03 0.03 86 1013.1
20260904152954 62 135 2.0 6.0 0.00 0.03 0.03 86 1013.1
20260904152916 62 136 2.0 6.0 0.00 0.03 0.03 86 1013.1
20260904152815 62 226 3.0 6.0 0.00 0.03 0.03 85 1013.1
20260904152712 62 233 3.0 6.0 0.00 0.03 0.03 85 1013.1
20260904152610 62 183 3.0 6.0 0.00 0.03 0.03 85 1013.1
20260904152513 62 197 3.0 6.0 0.00 0.03 0.03 86 1013.1
20260904152503 62 159 3.0 7.0 0.00 0.03 0.03 86 1013.1
20260904152410 62 113 3.0 7.0 0.00 0.03 0.03 86 1013.1
20260904152309 62 134 3.0 7.0 0.00 0.03 0.03 86 1013.1
20260904152205 62 163 3.0 7.0 0.00 0.03 0.03 86 1013.0
20260904152104 62 212 3.0 7.0 0.00 0.03 0.03 86 1013.0
20260904152003 62 122 3.0 7.0 0.00 0.03 0.03 86 1013.0
20260904151943 62 225 3.0 7.0 0.00 0.03 0.03 86 1013.0
20260904151904 62 225 3.0 7.0 0.00 0.03 0.03 86 1013.0
20260904151803 62 129 2.0 7.0 0.00 0.03 0.03 86 1013.1
20260904151703 62 225 2.0 7.0 0.00 0.03 0.03 86 1013.1
20260904151601 62 208 2.0 7.0 0.00 0.03 0.03 86 1013.1
20260904151501 62 95 2.0 7.0 0.00 0.03 0.03 86 1013.1
20260904151436 62 190 2.0 6.0 0.00 0.03 0.03 86 1013.1
20260904151400 62 203 2.0 6.0 0.00 0.03 0.03 87 1013.1
20260904151258 62 226 2.0 6.0 0.00 0.03 0.03 86 1013.1
20260904151152 62 129 2.0 4.0 0.00 0.03 0.03 87 1013.1
20260904151051 62 224 2.0 4.0 0.00 0.03 0.03 87 1013.1
20260904150952 61 217 2.0 4.0 0.00 0.03 0.03 87 1013.2
20260904150931 61 149 2.0 4.0 0.00 0.03 0.03 87 1013.2
20260904150852 61 141 2.0 4.0 0.00 0.03 0.03 87 1013.1
20260904150751 61 194 2.0 4.0 0.00 0.03 0.03 87 1013.1
20260904150652 61 183 2.0 4.0 0.00 0.03 0.03 87 1013.1
20260904150549 61 231 2.0 6.0 0.00 0.03 0.03 87 1013.1
20260904150448 61 211 2.0 6.0 0.00 0.03 0.03 87 1013.1
20260904150427 61 215 2.0 6.0 0.00 0.03 0.03 87 1013.1
20260904150348 61 221 2.0 6.0 0.00 0.03 0.03 87 1013.0
20260904150246 61 210 2.0 6.0 0.00 0.03 0.03 88 1013.1
20260904150143 61 148 2.0 6.0 0.00 0.03 0.03 88 1013.0
20260904150040 61 149 2.0 6.0 0.00 0.03 0.03 88 1013.1
20260904145939 61 160 2.0 6.0 0.00 0.03 0.03 88 1013.0
20260904145919 61 149 2.0 6.0 0.00 0.03 0.03 88 1013.0
20260904145841 61 158 2.0 6.0 0.00 0.03 0.03 88 1013.0
20260904145740 61 218 2.0 6.0 0.00 0.03 0.03 88 1013.1
20260904145634 61 229 1.0 6.0 0.00 0.03 0.03 88 1013.0
20260904145533 61 231 1.0 5.0 0.00 0.03 0.03 89 1013.0
20260904145412 61 143 1.0 3.0 0.00 0.03 0.03 90 1013.0
20260904145333 61 144 1.0 3.0 0.00 0.03 0.03 90 1013.0
20260904145234 60 104 1.0 3.0 0.00 0.03 0.03 90 1013.0
20260904145129 60 135 1.0 3.0 0.00 0.03 0.03 90 1013.0
20260904145027 60 138 0.0 3.0 0.00 0.03 0.03 90 1013.0
20260904144927 60 138 1.0 3.0 0.00 0.03 0.03 90 1013.0
20260904144909 60 138 0.0 3.0 0.00 0.03 0.03 90 1013.0
20260904144827 60 135 0.0 3.0 0.00 0.03 0.03 91 1013.0
20260904144728 60 139 0.0 3.0 0.00 0.03 0.03 91 1013.0
20260904144624 60 139 1.0 3.0 0.00 0.03 0.03 90 1013.0
20260904144522 60 138 1.0 3.0 0.00 0.03 0.03 90 1013.0
20260904144422 60 133 1.0 3.0 0.00 0.03 0.03 90 1013.0
20260904144401 60 186 1.0 3.0 0.00 0.03 0.03 90 1013.0
20260904144321 59 211 1.0 4.0 0.00 0.03 0.03 91 1013.0
20260904144222 59 186 1.0 4.0 0.00 0.03 0.03 91 1012.9
20260904144125 59 235 1.0 4.0 0.00 0.03 0.03 91 1012.9
20260904144118 59 186 1.0 4.0 0.00 0.03 0.03 90 1012.9
20260904144015 59 188 1.0 4.0 0.00 0.03 0.03 91 1012.9
20260904144005 59 196 1.0 4.0 0.00 0.03 0.03 91 1012.9
20260904143816 59 235 1.0 4.0 0.00 0.03 0.03 90 1012.9
20260904143715 59 225 1.0 4.0 0.00 0.03 0.03 90 1012.9
20260904143624 59 236 0.0 4.0 0.00 0.03 0.03 90 1012.8
20260904143612 59 203 0.0 4.0 0.00 0.03 0.03 90 1012.9
20260904143510 59 236 0.0 4.0 0.00 0.03 0.03 91 1012.8
20260904143410 59 236 0.0 4.0 0.00 0.03 0.03 90 1012.8
20260904143310 59 245 0.0 2.0 0.00 0.03 0.03 90 1012.8
20260904143210 59 190 0.0 2.0 0.00 0.03 0.03 90 1012.8
20260904143110 59 186 0.0 2.0 0.00 0.03 0.03 90 1012.8
20260904143008 59 186 0.0 2.0 0.00 0.03 0.03 90 1012.8
20260904142907 59 186 0.0 2.0 0.00 0.03 0.03 90 1012.7
20260904142856 59 186 0.0 2.0 0.00 0.03 0.03 90 1012.7
20260904142805 59 186 0.0 2.0 0.00 0.03 0.03 90 1012.7
20260904142705 59 186 1.0 2.0 0.00 0.03 0.03 90 1012.7
20260904142558 59 186 1.0 2.0 0.00 0.03 0.03 90 1012.7
20260904142458 59 186 1.0 2.0 0.00 0.03 0.03 90 1012.6
20260904142357 59 186 1.0 2.0 0.00 0.03 0.03 90 1012.6
20260904142337 59 211 1.0 2.0 0.00 0.03 0.03 90 1012.6
20260904142257 59 211 1.0 2.0 0.00 0.03 0.03 90 1012.6
20260904142159 59 136 1.0 6.0 0.00 0.03 0.03 90 1012.5
20260904142055 59 136 1.0 7.0 0.00 0.03 0.03 90 1012.5
20260904141955 59 134 1.0 7.0 0.00 0.03 0.03 90 1012.5
20260904141831 59 134 2.0 7.0 0.00 0.03 0.03 90 1012.5
20260904141753 59 134 2.0 7.0 0.00 0.03 0.03 90 1012.4
20260904141652 59 129 2.0 7.0 0.00 0.03 0.03 90 1012.4
20260904141547 59 143 2.0 7.0 0.00 0.03 0.03 90 1012.4
20260904141448 59 258 2.0 7.0 0.00 0.03 0.03 90 1012.4
20260904141348 59 193 2.0 7.0 0.00 0.03 0.03 90 1012.4
20260904141326 59 155 2.0 7.0 0.00 0.03 0.03 90 1012.4
20260904141311 59 231 2.0 5.0 0.00 0.03 0.03 90 1012.3
20260904141248 59 120 2.0 7.0 0.00 0.03 0.03 90 1012.4
20260904141158 59 222 2.0 5.0 0.00 0.03 0.03 90 1012.4
20260904141040 59 131 2.0 5.0 0.00 0.03 0.03 90 1012.4
20260904140940 59 222 2.0 5.0 0.00 0.03 0.03 90 1012.4
20260904140931 59 193 2.0 5.0 0.00 0.03 0.03 90 1012.3
20260904140804 59 216 1.0 4.0 0.00 0.03 0.03 90 1012.3
20260904140740 59 207 2.0 5.0 0.00 0.03 0.03 90 1012.3
20260904140650 59 192 2.0 5.0 0.00 0.03 0.03 90 1012.3
20260904140536 59 231 2.0 5.0 0.00 0.03 0.03 90 1012.3
20260904140435 59 210 1.0 4.0 0.00 0.03 0.03 90 1012.2
20260904140423 59 215 1.0 4.0 0.00 0.03 0.03 90 1012.2
20260904140237 59 193 1.0 4.0 0.00 0.03 0.03 90 1012.3
20260904140133 59 200 1.0 3.0 0.00 0.03 0.03 90 1012.2
20260904140032 59 211 0.0 3.0 0.00 0.03 0.03 90 1012.3
20260904135932 59 179 0.0 2.0 0.00 0.03 0.03 90 1012.2
20260904135807 59 190 0.0 2.0 0.00 0.03 0.03 90 1012.3
20260904135730 59 190 0.0 3.0 0.00 0.03 0.03 90 1012.3
20260904135627 59 190 1.0 3.0 0.00 0.03 0.03 90 1012.3
20260904135522 59 190 0.0 3.0 0.00 0.03 0.03 90 1012.3
20260904135422 59 190 0.0 3.0 0.00 0.03 0.03 90 1012.3
20260904135321 59 190 1.0 3.0 0.00 0.03 0.03 89 1012.2
20260904135300 59 190 1.0 3.0 0.00 0.03 0.03 89 1012.2
20260904135223 59 190 1.0 3.0 0.00 0.03 0.03 89 1012.2
20260904135121 59 190 1.0 3.0 0.00 0.03 0.03 89 1012.2
20260904135022 59 190 1.0 3.0 0.00 0.03 0.03 89 1012.2
20260904134919 59 190 1.0 3.0 0.00 0.03 0.03 89 1012.2
20260904134820 59 190 1.0 3.0 0.00 0.03 0.03 89 1012.2
20260904134754 60 190 0.0 3.0 0.00 0.03 0.03 89 1012.2
20260904134718 60 191 0.0 3.0 0.00 0.03 0.03 89 1012.2
20260904134615 60 225 1.0 3.0 0.00 0.03 0.03 89 1012.1
20260904134509 60 225 1.0 3.0 0.00 0.03 0.03 89 1012.2
20260904134411 60 225 1.0 3.0 0.00 0.03 0.03 89 1012.2
20260904134310 60 226 1.0 3.0 0.00 0.03 0.03 89 1012.1
20260904134249 60 226 1.0 3.0 0.00 0.03 0.03 89 1012.1
20260904134210 60 226 1.0 3.0 0.00 0.03 0.03 89 1012.2
20260904134110 60 211 1.0 3.0 0.00 0.03 0.03 89 1012.1
20260904134005 60 136 1.0 3.0 0.00 0.03 0.03 89 1012.1
20260904133903 60 136 1.0 3.0 0.00 0.03 0.03 89 1012.1
20260904133803 60 136 2.0 5.0 0.00 0.03 0.03 89 1012.1
20260904133747 60 135 2.0 5.0 0.00 0.03 0.03 89 1012.1
20260904133703 60 136 1.0 5.0 0.00 0.03 0.03 89 1012.1
20260904133559 60 197 1.0 5.0 0.00 0.03 0.03 89 1012.0
20260904133456 60 229 1.0 5.0 0.00 0.03 0.03 89 1012.0
20260904133355 60 238 1.0 5.0 0.00 0.03 0.03 89 1012.0
20260904133232 60 147 1.0 5.0 0.00 0.03 0.03 88 1012.0
20260904133223 60 241 2.0 7.0 0.00 0.03 0.03 88 1011.9
20260904133156 60 146 1.0 5.0 0.00 0.03 0.03 88 1011.9
20260904133107 60 201 1.0 5.0 0.00 0.03 0.03 88 1012.0
20260904132951 60 239 2.0 5.0 0.00 0.03 0.03 88 1012.0
20260904132851 60 239 2.0 7.0 0.00 0.03 0.03 88 1012.0
20260904132836 60 207 2.0 7.0 0.00 0.03 0.03 88 1011.9
20260904132651 60 242 2.0 7.0 0.00 0.03 0.03 88 1012.0
20260904132547 60 242 2.0 7.0 0.00 0.03 0.03 88 1011.9
20260904132446 60 242 2.0 7.0 0.00 0.03 0.03 88 1011.9
20260904132345 60 212 2.0 7.0 0.00 0.03 0.03 88 1011.9
20260904132220 60 212 2.0 7.0 0.00 0.03 0.03 88 1011.8
20260904132145 60 231 2.0 7.0 0.00 0.03 0.03 88 1011.9
20260904132041 60 259 2.0 7.0 0.00 0.03 0.03 88 1011.8
20260904131940 60 229 2.0 7.0 0.00 0.03 0.03 88 1011.8
20260904131840 60 144 2.0 5.0 0.00 0.03 0.03 88 1011.8
20260904131739 61 222 2.0 5.0 0.00 0.03 0.03 88 1011.8
20260904131727 61 212 2.0 5.0 0.00 0.03 0.03 88 1011.8
20260904131638 61 236 2.0 5.0 0.00 0.03 0.03 88 1011.8
20260904131540 61 239 2.0 5.0 0.00 0.03 0.03 88 1011.8
20260904131429 61 221 2.0 5.0 0.00 0.03 0.03 88 1011.8
20260904131329 61 242 2.0 5.0 0.00 0.03 0.03 88 1011.8
20260904131231 61 238 2.0 5.0 0.00 0.03 0.03 88 1011.8
20260904131209 61 229 2.0 5.0 0.00 0.03 0.03 88 1011.8
20260904131130 61 231 2.0 5.0 0.00 0.03 0.03 88 1011.8
20260904131030 61 233 2.0 5.0 0.00 0.03 0.03 88 1011.8
20260904130926 61 203 2.0 4.0 0.00 0.03 0.03 89 1011.8
20260904130826 61 193 2.0 4.0 0.00 0.03 0.03 89 1011.7
20260904130726 61 155 1.0 4.0 0.00 0.03 0.03 89 1011.7
20260904130703 61 200 1.0 4.0 0.00 0.03 0.03 89 1011.7
20260904130625 61 212 1.0 4.0 0.00 0.03 0.03 89 1011.7
20260904130524 61 198 1.0 4.0 0.00 0.03 0.03 88 1011.7
20260904130417 61 226 1.0 4.0 0.00 0.03 0.03 88 1011.7
20260904130318 61 226 1.0 4.0 0.00 0.03 0.03 88 1011.7
20260904130220 61 228 1.0 4.0 0.00 0.03 0.03 88 1011.7
20260904130209 61 228 2.0 4.0 0.00 0.03 0.03 88 1011.7
20260904130117 61 229 2.0 4.0 0.00 0.03 0.03 88 1011.7
20260904130019 61 208 2.0 4.0 0.00 0.03 0.03 88 1011.7
20260904125911 61 210 2.0 6.0 0.00 0.03 0.03 88 1011.7
20260904125812 61 129 2.0 6.0 0.00 0.03 0.03 88 1011.7
20260904125712 61 138 3.0 6.0 0.00 0.03 0.03 88 1011.7
20260904125651 61 138 3.0 6.0 0.00 0.03 0.03 88 1011.7
20260904125613 61 137 3.0 9.0 0.00 0.03 0.03 88 1011.7
20260904125511 61 221 3.0 9.0 0.00 0.03 0.03 88 1011.7
20260904125412 61 228 3.0 9.0 0.00 0.03 0.03 88 1011.7
20260904125310 61 228 3.0 9.0 0.00 0.03 0.03 88 1011.8
20260904125214 61 232 3.0 9.0 0.00 0.03 0.03 88 1011.8
20260904125145 61 238 3.0 9.0 0.00 0.03 0.03 88 1011.8
20260904125108 61 162 3.0 9.0 0.00 0.03 0.03 88 1011.7
20260904125006 61 194 2.0 9.0 0.00 0.03 0.03 88 1011.7
20260904124859 61 231 2.0 9.0 0.00 0.03 0.03 88 1011.7
20260904124800 61 231 2.0 9.0 0.00 0.03 0.03 88 1011.7
20260904124700 61 248 2.0 9.0 0.00 0.03 0.03 88 1011.7
20260904124638 61 258 2.0 9.0 0.00 0.03 0.03 88 1011.7
20260904124600 61 231 2.0 5.0 0.00 0.03 0.03 88 1011.7
20260904124459 61 198 1.0 5.0 0.00 0.03 0.03 89 1011.7
20260904124355 61 228 1.0 4.0 0.00 0.03 0.03 89 1011.6
20260904124256 61 269 2.0 4.0 0.00 0.03 0.03 89 1011.6
20260904124156 61 212 2.0 7.0 0.00 0.03 0.03 89 1011.6
20260904124133 61 225 2.0 7.0 0.00 0.03 0.03 89 1011.6
20260904124056 61 222 2.0 7.0 0.00 0.03 0.03 89 1011.7
20260904123954 61 217 2.0 7.0 0.00 0.03 0.03 89 1011.6
20260904123852 61 219 2.0 7.0 0.00 0.03 0.03 89 1011.6
20260904123752 61 160 2.0 7.0 0.00 0.03 0.03 89 1011.6
20260904123627 61 190 2.0 7.0 0.00 0.03 0.03 89 1011.6
20260904123550 61 195 2.0 7.0 0.00 0.03 0.03 89 1011.6
20260904123447 61 218 2.0 7.0 0.00 0.03 0.03 89 1011.6
20260904123348 61 205 2.0 7.0 0.00 0.03 0.03 89 1011.6
20260904123246 61 214 2.0 7.0 0.00 0.03 0.03 89 1011.6
20260904123146 61 205 2.0 6.0 0.00 0.03 0.03 89 1011.6
20260904123120 61 225 2.0 6.0 0.00 0.03 0.03 89 1011.6
20260904123043 61 233 2.0 6.0 0.00 0.03 0.03 89 1011.6
20260904122941 61 136 2.0 6.0 0.00 0.03 0.03 89 1011.6
20260904122837 61 214 2.0 6.0 0.00 0.03 0.03 89 1011.5
20260904122735 61 193 2.0 6.0 0.00 0.03 0.03 89 1011.5
20260904122639 61 235 2.0 6.0 0.00 0.03 0.03 89 1011.5
20260904122613 61 236 2.0 6.0 0.00 0.03 0.03 89 1011.6
20260904122536 61 235 2.0 6.0 0.00 0.03 0.03 89 1011.6
20260904122435 61 235 2.0 6.0 0.00 0.03 0.03 89 1011.5
20260904122329 61 135 2.0 6.0 0.00 0.03 0.03 89 1011.5
20260904122229 61 242 2.0 6.0 0.00 0.03 0.03 89 1011.5
20260904122129 61 226 2.0 6.0 0.00 0.03 0.03 89 1011.5
20260904122108 61 259 2.0 6.0 0.00 0.03 0.03 89 1011.5
20260904122029 61 198 2.0 6.0 0.00 0.03 0.03 89 1011.5
20260904121929 61 205 2.0 6.0 0.00 0.03 0.03 89 1011.5
20260904121833 61 243 2.0 7.0 0.00 0.03 0.03 89 1011.5
20260904121728 61 226 2.0 7.0 0.00 0.03 0.03 89 1011.5
20260904121627 61 217 2.0 7.0 0.00 0.03 0.03 89 1011.5
20260904121602 61 166 3.0 7.0 0.00 0.03 0.03 89 1011.5
20260904121525 61 166 3.0 7.0 0.00 0.03 0.03 89 1011.5
20260904121423 61 211 2.0 7.0 0.00 0.03 0.03 89 1011.5
20260904121327 61 252 2.0 7.0 0.00 0.03 0.03 89 1011.5
20260904121320 61 212 2.0 7.0 0.00 0.03 0.03 89 1011.5
20260904121220 61 224 2.0 7.0 0.00 0.03 0.03 89 1011.5
20260904121212 61 145 2.0 7.0 0.00 0.03 0.03 89 1011.5
20260904121018 61 229 2.0 7.0 0.00 0.03 0.03 90 1011.5
20260904120917 61 214 2.0 5.0 0.00 0.03 0.03 90 1011.5
20260904120814 61 214 2.0 5.0 0.00 0.03 0.03 90 1011.5
20260904120712 61 161 2.0 5.0 0.00 0.03 0.03 89 1011.5
20260904120612 61 169 2.0 4.0 0.00 0.03 0.03 90 1011.5
20260904120550 61 210 2.0 4.0 0.00 0.03 0.03 90 1011.5
20260904120512 61 193 2.0 7.0 0.00 0.03 0.03 89 1011.4
20260904120411 61 219 2.0 7.0 0.00 0.03 0.03 89 1011.4
20260904120311 61 219 2.0 7.0 0.00 0.03 0.03 89 1011.5
20260904120211 61 255 2.0 7.0 0.00 0.03 0.03 90 1011.4
20260904120108 61 238 2.0 7.0 0.00 0.03 0.03 90 1011.4
20260904120057 61 211 2.0 7.0 0.00 0.03 0.03 90 1011.4
20260904120008 61 212 3.0 7.0 0.00 0.03 0.03 90 1011.4
20260904115905 61 148 3.0 7.0 0.00 0.03 0.03 89 1011.4
20260904115801 61 242 3.0 7.0 0.00 0.03 0.03 89 1011.4
20260904115700 61 211 3.0 7.0 0.00 0.03 0.03 89 1011.4
20260904115559 61 260 3.0 7.0 0.00 0.03 0.03 89 1011.4
20260904115539 61 242 3.0 7.0 0.00 0.03 0.03 89 1011.4
20260904115500 61 241 3.0 6.0 0.00 0.03 0.03 90 1011.4
20260904115359 61 199 3.0 6.0 0.00 0.03 0.03 90 1011.4
20260904115254 61 236 3.0 5.0 0.00 0.03 0.03 90 1011.4
20260904115154 61 233 3.0 5.0 0.00 0.03 0.03 90 1011.4
20260904115054 61 231 3.0 6.0 0.00 0.03 0.03 90 1011.4
20260904115032 61 243 3.0 6.0 0.00 0.03 0.03 90 1011.4
20260904114953 61 233 2.0 6.0 0.00 0.03 0.03 90 1011.4
20260904114854 61 192 2.0 6.0 0.00 0.03 0.03 90 1011.4
20260904114750 61 169 2.0 6.0 0.00 0.03 0.03 90 1011.4
20260904114649 61 217 2.0 6.0 0.00 0.03 0.03 91 1011.5
20260904114548 61 179 2.0 6.0 0.00 0.03 0.03 90 1011.5
20260904114527 61 150 2.0 6.0 0.00 0.03 0.03 90 1011.5
20260904114448 61 134 2.0 6.0 0.00 0.03 0.03 90 1011.5
20260904114347 61 226 2.0 6.0 0.00 0.03 0.03 90 1011.4
20260904114246 61 219 1.0 4.0 0.00 0.03 0.03 91 1011.5
20260904114241 61 233 2.0 6.0 0.00 0.03 0.03 90 1011.5
20260904114142 61 250 1.0 6.0 0.00 0.03 0.03 91 1011.5
20260904114131 61 207 1.0 5.0 0.00 0.03 0.03 91 1011.5
20260904113941 61 222 1.0 4.0 0.00 0.03 0.03 91 1011.5
20260904113841 61 218 1.0 4.0 0.00 0.03 0.03 91 1011.4
20260904113741 61 238 1.0 3.0 0.00 0.03 0.03 91 1011.4
20260904113737 61 236 1.0 4.0 0.00 0.03 0.03 91 1011.4
20260904113637 61 237 1.0 4.0 0.00 0.03 0.03 90 1011.4
20260904113625 61 240 1.0 3.0 0.00 0.03 0.03 91 1011.4
20260904113436 61 233 0.0 3.0 0.00 0.03 0.03 91 1011.4
20260904113336 61 232 0.0 2.0 0.00 0.03 0.03 91 1011.4
20260904113232 61 232 0.0 2.0 0.00 0.03 0.03 91 1011.4
20260904113130 61 232 1.0 4.0 0.00 0.03 0.03 91 1011.4
20260904113008 61 215 1.0 4.0 0.00 0.03 0.03 91 1011.4
20260904112929 61 216 1.0 4.0 0.00 0.03 0.03 91 1011.4
20260904112834 61 210 1.0 4.0 0.00 0.03 0.03 91 1011.4
20260904112736 61 172 2.0 6.0 0.00 0.03 0.03 91 1011.3
20260904112730 61 210 1.0 5.0 0.00 0.03 0.03 91 1011.3
20260904112627 61 210 1.0 5.0 0.00 0.03 0.03 91 1011.3
20260904112528 61 172 2.0 6.0 0.00 0.03 0.03 91 1011.3
20260904112426 61 172 2.0 6.0 0.00 0.03 0.03 91 1011.3
20260904112324 61 172 2.0 6.0 0.00 0.03 0.03 91 1011.3
20260904112219 61 190 2.0 6.0 0.00 0.03 0.03 91 1011.4
20260904112118 61 211 2.0 6.0 0.00 0.03 0.03 91 1011.3
20260904112018 61 228 2.0 6.0 0.00 0.03 0.03 91 1011.3
20260904111956 61 248 2.0 6.0 0.00 0.03 0.03 91 1011.4
20260904111918 61 185 2.0 6.0 0.00 0.03 0.03 91 1011.3
20260904111818 61 188 2.0 6.0 0.00 0.03 0.03 91 1011.3
20260904111715 61 239 2.0 6.0 0.00 0.03 0.03 91 1011.3
20260904111611 61 239 2.0 6.0 0.00 0.03 0.03 91 1011.3
20260904111511 61 229 2.0 5.0 0.00 0.03 0.03 91 1011.3
20260904111455 61 229 2.0 5.0 0.00 0.03 0.03 91 1011.3
20260904111411 61 229 2.0 5.0 0.00 0.03 0.03 91 1011.3
20260904111311 61 217 2.0 5.0 0.00 0.03 0.03 91 1011.3
20260904111207 61 230 2.0 5.0 0.00 0.03 0.03 91 1011.3
20260904111105 61 232 2.0 5.0 0.00 0.03 0.03 91 1011.3
20260904111006 61 205 2.0 4.0 0.00 0.03 0.03 91 1011.3
20260904110955 61 226 2.0 4.0 0.00 0.03 0.03 91 1011.3
20260904110906 61 199 2.0 4.0 0.00 0.03 0.03 91 1011.3
20260904110805 61 222 2.0 6.0 0.00 0.03 0.03 91 1011.3
20260904110704 61 228 2.0 6.0 0.00 0.03 0.03 91 1011.2
20260904110600 61 256 2.0 6.0 0.00 0.03 0.03 91 1011.3
20260904110502 61 148 2.0 6.0 0.00 0.03 0.03 91 1011.2
20260904110452 61 167 2.0 6.0 0.00 0.03 0.03 91 1011.2
20260904110400 61 181 2.0 6.0 0.00 0.03 0.03 91 1011.2
20260904110259 61 222 3.0 6.0 0.00 0.03 0.03 91 1011.2
20260904110156 61 236 3.0 6.0 0.00 0.03 0.03 91 1011.2
20260904110054 61 233 3.0 6.0 0.00 0.03 0.03 91 1011.1
20260904105959 61 188 3.0 6.0 0.00 0.03 0.03 91 1011.2
20260904105953 61 187 3.0 6.0 0.00 0.03 0.03 91 1011.2
20260904105853 61 243 2.0 6.0 0.00 0.03 0.03 92 1011.2
20260904105753 61 233 2.0 4.0 0.00 0.03 0.03 92 1011.2
20260904105655 61 212 2.0 4.0 0.00 0.03 0.03 92 1011.2
20260904105551 61 226 2.0 4.0 0.00 0.03 0.03 92 1011.1
20260904105455 61 197 2.0 4.0 0.00 0.03 0.03 92 1011.1
20260904105449 61 203 2.0 4.0 0.00 0.03 0.03 92 1011.1
20260904105350 61 240 2.0 4.0 0.00 0.03 0.03 92 1011.2
20260904105248 61 217 2.0 5.0 0.00 0.03 0.03 92 1011.1
20260904105145 61 163 2.0 5.0 0.00 0.03 0.03 92 1011.1
20260904105042 61 146 1.0 5.0 0.00 0.03 0.03 92 1011.1
20260904104950 61 214 2.0 5.0 0.00 0.03 0.03 92 1011.1
20260904104941 61 194 2.0 5.0 0.00 0.03 0.03 92 1011.1
20260904104842 61 218 2.0 5.0 0.00 0.03 0.03 92 1011.1
20260904104741 61 236 2.0 5.0 0.00 0.03 0.03 92 1011.1
20260904104637 61 221 2.0 5.0 0.00 0.03 0.03 92 1011.1
20260904104536 61 166 2.0 5.0 0.00 0.03 0.03 92 1011.2
20260904104453 61 235 2.0 5.0 0.00 0.03 0.03 92 1011.1
20260904104435 61 233 2.0 5.0 0.00 0.03 0.03 92 1011.1
20260904104336 61 226 2.0 6.0 0.00 0.03 0.03 92 1011.1
20260904104235 61 236 2.0 6.0 0.00 0.03 0.03 92 1011.1
20260904104216 61 219 2.0 6.0 0.00 0.03 0.03 92 1011.1
20260904104137 61 232 3.0 6.0 0.00 0.03 0.03 92 1011.1
20260904104101 61 222 3.0 6.0 0.00 0.03 0.03 92 1011.1
20260904103934 61 215 2.0 6.0 0.00 0.03 0.03 92 1011.1
20260904103832 61 197 2.0 6.0 0.00 0.03 0.03 92 1011.1
20260904103730 61 233 2.0 6.0 0.00 0.03 0.03 92 1011.1
20260904103624 61 188 2.0 6.0 0.00 0.03 0.03 92 1011.1
20260904103523 61 238 3.0 8.0 0.00 0.03 0.03 92 1011.0
20260904103449 61 233 2.0 8.0 0.00 0.03 0.03 92 1011.1
20260904103424 61 232 2.0 8.0 0.00 0.03 0.03 92 1011.1
20260904103324 61 222 2.0 8.0 0.00 0.03 0.03 92 1011.1
20260904103223 61 214 2.0 8.0 0.00 0.03 0.03 92 1011.1
20260904103118 61 233 2.0 8.0 0.00 0.03 0.03 92 1011.0
20260904103017 61 238 2.0 8.0 0.00 0.03 0.03 92 1011.1
20260904102948 61 222 2.0 8.0 0.00 0.03 0.03 92 1011.1
20260904102917 61 239 2.0 8.0 0.00 0.03 0.03 92 1011.1
20260904102818 61 232 2.0 8.0 0.00 0.03 0.03 92 1011.1
20260904102720 61 238 2.0 8.0 0.00 0.03 0.03 92 1011.1
20260904102711 60 199 2.0 5.0 0.00 0.03 0.03 92 1011.0
20260904102614 61 187 2.0 8.0 0.00 0.03 0.03 92 1011.1
20260904102559 60 223 2.0 5.0 0.00 0.03 0.03 92 1011.0
20260904102412 60 214 2.0 5.0 0.00 0.03 0.03 91 1011.0
20260904102312 60 240 2.0 5.0 0.00 0.03 0.03 91 1011.0
20260904102211 60 225 2.0 5.0 0.00 0.03 0.03 91 1011.1
20260904102106 60 198 2.0 7.0 0.00 0.03 0.03 91 1011.1
20260904102006 60 233 2.0 7.0 0.00 0.03 0.03 91 1011.0
20260904101949 60 215 2.0 7.0 0.00 0.03 0.03 91 1011.0
20260904101906 60 218 2.0 7.0 0.00 0.03 0.03 91 1011.0
20260904101805 60 239 2.0 7.0 0.00 0.03 0.03 91 1011.0
20260904101706 60 234 2.0 7.0 0.00 0.03 0.03 91 1011.0
20260904101604 60 211 2.0 7.0 0.00 0.03 0.03 91 1011.0
20260904101505 60 211 2.0 7.0 0.00 0.03 0.03 91 1010.9
20260904101448 60 212 2.0 7.0 0.00 0.03 0.03 91 1010.9
20260904101403 60 172 2.0 7.0 0.00 0.03 0.03 91 1011.0
20260904101301 60 228 1.0 7.0 0.00 0.03 0.03 91 1010.9
20260904101200 60 204 1.0 7.0 0.00 0.03 0.03 91 1011.0
20260904101057 60 236 1.0 3.0 0.00 0.03 0.03 91 1010.9
20260904100949 60 221 1.0 3.0 0.00 0.03 0.03 91 1010.9
20260904100857 60 221 1.0 3.0 0.00 0.03 0.03 91 1010.9
20260904100755 60 221 1.0 4.0 0.00 0.03 0.03 91 1010.9
20260904100653 60 221 1.0 4.0 0.00 0.03 0.03 91 1010.9
20260904100550 60 203 2.0 5.0 0.00 0.03 0.03 91 1011.0
20260904100448 60 239 2.0 5.0 0.00 0.03 0.03 91 1011.0
20260904100348 60 161 2.0 5.0 0.00 0.03 0.03 91 1011.0
20260904100248 60 161 2.0 5.0 0.00 0.03 0.03 91 1011.0
20260904100207 60 205 2.0 5.0 0.00 0.03 0.03 91 1011.0
20260904100147 60 211 2.0 5.0 0.00 0.03 0.03 91 1011.0
20260904100059 60 211 2.0 5.0 0.00 0.03 0.03 91 1011.0
20260904095942 60 201 2.0 5.0 0.00 0.03 0.03 91 1011.0
20260904095842 60 233 2.0 5.0 0.00 0.03 0.03 91 1011.0
20260904095742 60 218 2.0 5.0 0.00 0.03 0.03 91 1010.9
20260904095642 60 222 2.0 5.0 0.00 0.03 0.03 91 1011.0
20260904095535 60 210 1.0 5.0 0.00 0.03 0.03 91 1010.9
20260904095448 60 155 1.0 4.0 0.00 0.03 0.03 91 1010.9
20260904095435 60 156 1.0 4.0 0.00 0.03 0.03 91 1010.9
20260904095336 60 211 1.0 4.0 0.00 0.03 0.03 91 1010.9
20260904095234 60 213 1.0 4.0 0.00 0.03 0.03 91 1010.9
20260904095134 60 214 1.0 4.0 0.00 0.03 0.03 91 1010.9
20260904095030 60 219 1.0 4.0 0.00 0.03 0.03 91 1010.9
20260904094929 60 219 1.0 4.0 0.00 0.03 0.03 91 1010.9
20260904094830 60 219 1.0 4.0 0.00 0.03 0.03 91 1010.9
20260904094730 60 233 1.0 4.0 0.00 0.03 0.03 91 1010.9
20260904094629 60 233 2.0 4.0 0.00 0.03 0.03 91 1010.9
20260904094526 60 233 2.0 4.0 0.00 0.03 0.03 91 1010.9
20260904094426 60 229 2.0 4.0 0.00 0.03 0.03 91 1010.9
20260904094326 60 229 2.0 4.0 0.00 0.03 0.03 91 1010.9
20260904094224 60 212 2.0 4.0 0.00 0.03 0.03 91 1010.9
20260904094121 60 225 2.0 4.0 0.00 0.03 0.03 91 1011.0
20260904094018 60 232 2.0 4.0 0.00 0.03 0.03 91 1010.9
20260904093937 60 226 2.0 4.0 0.00 0.03 0.03 91 1010.9
20260904093917 60 225 2.0 4.0 0.00 0.03 0.03 91 1010.9
20260904093818 60 219 1.0 4.0 0.00 0.03 0.03 91 1010.9
20260904093718 60 227 1.0 4.0 0.00 0.03 0.03 91 1010.9
20260904093615 60 226 1.0 4.0 0.00 0.03 0.03 91 1011.0
20260904093509 60 214 1.0 3.0 0.00 0.03 0.03 91 1011.0
20260904093429 60 228 1.0 3.0 0.00 0.03 0.03 91 1011.0
20260904093410 60 203 1.0 3.0 0.00 0.03 0.03 91 1011.0
20260904093309 60 168 1.0 3.0 0.00 0.03 0.03 91 1010.9
20260904093210 60 224 1.0 3.0 0.00 0.03 0.03 91 1010.9
20260904093109 60 215 1.0 3.0 0.00 0.03 0.03 91 1010.9
20260904093005 60 218 1.0 3.0 0.00 0.03 0.03 91 1011.0
20260904092926 60 218 1.0 3.0 0.00 0.03 0.03 91 1011.0
20260904092904 60 218 1.0 3.0 0.00 0.03 0.03 91 1010.9
20260904092803 60 181 1.0 3.0 0.00 0.03 0.03 91 1010.9
20260904092704 60 226 1.0 3.0 0.00 0.03 0.03 91 1010.9
20260904092603 60 143 1.0 3.0 0.00 0.03 0.03 91 1010.9
20260904092501 60 231 1.0 3.0 0.00 0.03 0.03 91 1010.9
20260904092418 60 203 1.0 4.0 0.00 0.03 0.03 91 1010.9
20260904092401 60 233 1.0 4.0 0.00 0.03 0.03 91 1010.9
20260904092301 60 236 1.0 4.0 0.00 0.03 0.03 91 1010.9
20260904092200 60 236 1.0 4.0 0.00 0.03 0.03 91 1010.9
20260904092057 60 236 1.0 4.0 0.00 0.03 0.03 91 1010.8
20260904091957 60 236 1.0 4.0 0.00 0.03 0.03 91 1010.8
20260904091913 60 236 1.0 4.0 0.00 0.03 0.03 91 1010.8
20260904091855 60 237 1.0 4.0 0.00 0.03 0.03 91 1010.8
20260904091756 60 236 1.0 4.0 0.00 0.03 0.03 91 1010.8
20260904091654 60 236 1.0 4.0 0.00 0.03 0.03 91 1010.8
20260904091629 60 236 1.0 3.0 0.00 0.03 0.03 91 1010.9
20260904091551 60 236 1.0 4.0 0.00 0.03 0.03 91 1010.8
20260904091517 60 236 1.0 4.0 0.00 0.03 0.03 91 1010.9
20260904091345 60 236 1.0 3.0 0.00 0.03 0.03 91 1010.9
20260904091245 60 226 1.0 3.0 0.00 0.03 0.03 91 1010.9
20260904091146 60 208 1.0 3.0 0.00 0.03 0.03 91 1010.9
20260904091045 60 203 1.0 3.0 0.00 0.03 0.03 91 1010.9
20260904090946 60 214 1.0 3.0 0.00 0.03 0.03 91 1010.9
20260904090843 60 200 1.0 3.0 0.00 0.03 0.03 91 1010.9
20260904090744 60 200 1.0 3.0 0.00 0.03 0.03 91 1011.0
20260904090642 60 231 1.0 3.0 0.00 0.03 0.03 91 1011.0
20260904090539 60 226 1.0 3.0 0.00 0.03 0.03 91 1011.0
20260904090433 60 210 1.0 3.0 0.00 0.03 0.03 91 1011.0
20260904090333 60 210 1.0 3.0 0.00 0.03 0.03 91 1011.0
20260904090233 60 210 1.0 3.0 0.00 0.03 0.03 91 1011.0
20260904090134 60 210 1.0 3.0 0.00 0.03 0.03 91 1011.0
20260904090034 60 210 1.0 3.0 0.00 0.03 0.03 91 1011.0
20260904085934 60 219 1.0 3.0 0.00 0.03 0.03 91 1011.0
20260904085832 60 219 1.0 3.0 0.00 0.03 0.03 91 1011.0
20260904085731 60 214 1.0 3.0 0.00 0.03 0.03 91 1011.0
20260904085629 60 214 1.0 3.0 0.00 0.03 0.03 91 1011.1
20260904085527 60 211 1.0 2.0 0.00 0.03 0.03 91 1011.0
20260904085428 60 200 1.0 2.0 0.00 0.03 0.03 91 1011.0
20260904085325 60 200 1.0 2.0 0.00 0.03 0.03 91 1011.0
20260904085224 60 210 0.0 2.0 0.00 0.03 0.03 91 1011.0
20260904085124 60 205 0.0 2.0 0.00 0.03 0.03 91 1011.1
20260904085021 60 186 0.0 2.0 0.00 0.03 0.03 90 1011.1
20260904084922 60 228 0.0 2.0 0.00 0.03 0.03 91 1011.1
20260904084836 60 205 0.0 1.0 0.00 0.03 0.03 91 1011.1
20260904084819 60 204 0.0 1.0 0.00 0.03 0.03 91 1011.1
20260904084720 60 204 0.0 1.0 0.00 0.03 0.03 91 1011.1
20260904084618 60 204 0.0 1.0 0.00 0.03 0.03 91 1011.1
20260904084516 60 205 0.0 1.0 0.00 0.03 0.03 91 1011.1
20260904084412 60 204 0.0 1.0 0.00 0.03 0.03 91 1011.1
20260904084343 60 204 0.0 1.0 0.00 0.03 0.03 91 1011.1
20260904084312 60 204 0.0 1.0 0.00 0.03 0.03 91 1011.1
20260904084211 60 204 0.0 1.0 0.00 0.03 0.03 91 1011.1
20260904084112 60 204 0.0 2.0 0.00 0.03 0.03 91 1011.1
20260904084048 60 204 1.0 2.0 0.00 0.03 0.03 91 1011.1
20260904084009 60 205 0.0 2.0 0.00 0.03 0.03 91 1011.1
20260904083938 60 204 1.0 2.0 0.00 0.03 0.03 91 1011.1
20260904083808 60 204 1.0 2.0 0.00 0.03 0.03 91 1011.1
20260904083708 60 204 1.0 2.0 0.00 0.03 0.03 91 1011.1
20260904083606 60 204 1.0 2.0 0.00 0.03 0.03 91 1011.1
20260904083507 60 205 1.0 2.0 0.00 0.03 0.03 91 1011.1
20260904083404 60 205 1.0 2.0 0.00 0.03 0.03 91 1011.1
20260904083331 60 204 1.0 2.0 0.00 0.03 0.03 91 1011.1
20260904083302 60 205 1.0 2.0 0.00 0.03 0.03 91 1011.1
20260904083201 60 204 1.0 2.0 0.00 0.03 0.03 91 1011.1
20260904083100 60 200 0.0 2.0 0.00 0.03 0.03 91 1011.1
20260904083032 60 212 0.0 2.0 0.01 0.03 0.03 91 1011.1
20260904082957 60 225 0.0 2.0 0.00 0.03 0.03 91 1011.1
20260904082926 60 224 0.0 2.0 0.00 0.03 0.03 91 1011.1
20260904082755 60 212 0.0 2.0 0.01 0.03 0.03 91 1011.1
20260904082655 60 212 0.0 2.0 0.01 0.03 0.03 91 1011.1
20260904082554 60 226 0.0 2.0 0.01 0.03 0.03 91 1011.1
20260904082450 60 226 0.0 2.0 0.01 0.03 0.03 91 1011.1
20260904082352 60 226 0.0 2.0 0.01 0.03 0.03 91 1011.2
20260904082306 60 226 1.0 2.0 0.01 0.03 0.03 91 1011.1
20260904082249 60 226 1.0 2.0 0.01 0.03 0.03 91 1011.1
20260904082150 60 226 1.0 2.0 0.01 0.03 0.03 91 1011.1
20260904082047 60 226 1.0 2.0 0.01 0.03 0.03 91 1011.1
20260904081946 60 226 1.0 2.0 0.01 0.03 0.03 91 1011.2
20260904081846 60 226 1.0 2.0 0.01 0.03 0.03 91 1011.2
20260904081743 60 226 0.0 2.0 0.01 0.03 0.03 91 1011.1
20260904081643 60 232 1.0 2.0 0.01 0.03 0.03 91 1011.2
20260904081541 60 232 0.0 2.0 0.01 0.03 0.03 91 1011.2
20260904081520 60 236 0.0 2.0 0.02 0.03 0.03 91 1011.2
20260904081439 60 238 0.0 2.0 0.01 0.03 0.03 91 1011.2
20260904081405 60 238 0.0 2.0 0.01 0.03 0.03 91 1011.2
20260904081238 60 220 0.0 2.0 0.02 0.03 0.03 91 1011.2
20260904081138 60 158 0.0 2.0 0.02 0.03 0.03 91 1011.2
20260904081036 60 158 0.0 2.0 0.02 0.03 0.03 91 1011.1
20260904080933 60 136 0.0 3.0 0.02 0.03 0.03 91 1011.1
20260904080829 60 231 1.0 3.0 0.02 0.03 0.03 91 1011.2
20260904080748 60 231 1.0 3.0 0.02 0.03 0.03 91 1011.1
20260904080727 60 158 1.0 3.0 0.02 0.03 0.03 91 1011.1
20260904080628 60 158 1.0 3.0 0.02 0.03 0.03 91 1011.1
20260904080528 60 158 1.0 3.0 0.02 0.03 0.03 91 1011.1
20260904080427 60 158 1.0 3.0 0.02 0.03 0.03 91 1011.2
20260904080325 60 163 1.0 3.0 0.02 0.03 0.03 91 1011.1
20260904080226 60 162 2.0 4.0 0.02 0.03 0.03 91 1011.2
20260904080125 60 162 2.0 4.0 0.03 0.03 0.03 91 1011.2
20260904080024 60 235 2.0 4.0 0.03 0.03 0.03 91 1011.2
20260904075958 60 243 2.0 5.0 0.03 0.03 0.03 91 1011.2
20260904075922 60 207 2.0 4.0 0.03 0.03 0.03 91 1011.2
20260904075846 60 212 2.0 5.0 0.03 0.03 0.03 91 1011.2
20260904075718 60 223 2.0 5.0 0.03 0.03 0.03 91 1011.2
20260904075618 60 187 2.0 5.0 0.03 0.03 0.03 91 1011.2
20260904075517 60 224 2.0 5.0 0.03 0.03 0.03 91 1011.2
20260904075415 60 228 2.0 5.0 0.03 0.03 0.03 91 1011.2
20260904075309 61 231 2.0 5.0 0.03 0.03 0.03 91 1011.2
20260904075231 61 166 2.0 5.0 0.03 0.03 0.03 91 1011.2
20260904075210 61 229 2.0 5.0 0.03 0.03 0.03 91 1011.2
20260904075110 61 148 2.0 5.0 0.03 0.03 0.03 91 1011.2
20260904075009 61 266 2.0 5.0 0.03 0.03 0.03 91 1011.2
20260904074909 61 147 2.0 5.0 0.03 0.03 0.03 91 1011.3
20260904074810 61 225 2.0 5.0 0.03 0.03 0.03 91 1011.3
20260904074724 61 228 2.0 5.0 0.03 0.03 0.03 91 1011.3
20260904074708 61 222 2.0 5.0 0.03 0.03 0.03 91 1011.2
20260904074608 61 219 2.0 5.0 0.03 0.03 0.03 91 1011.2
20260904074506 61 229 2.0 5.0 0.03 0.03 0.03 91 1011.3
20260904074405 61 226 2.0 5.0 0.03 0.03 0.03 91 1011.2
20260904074303 61 226 2.0 5.0 0.03 0.03 0.03 91 1011.2
20260904074218 61 235 2.0 5.0 0.03 0.03 0.03 91 1011.2
20260904074202 61 221 2.0 4.0 0.03 0.03 0.03 91 1011.2
20260904074101 61 229 1.0 4.0 0.03 0.03 0.03 91 1011.2
20260904073959 61 214 1.0 3.0 0.03 0.03 0.03 91 1011.2
20260904073857 61 222 1.0 3.0 0.03 0.03 0.03 91 1011.1
20260904073755 61 155 1.0 3.0 0.03 0.03 0.03 91 1011.0
20260904073712 61 200 1.0 3.0 0.03 0.03 0.03 91 1011.1
20260904073656 61 203 1.0 3.0 0.03 0.03 0.03 91 1011.1
20260904073555 61 236 1.0 3.0 0.03 0.03 0.03 91 1011.1
20260904073453 61 229 1.0 3.0 0.03 0.03 0.03 91 1011.1
20260904073352 61 157 1.0 3.0 0.03 0.03 0.03 91 1011.0
20260904073248 61 233 1.0 3.0 0.03 0.03 0.03 91 1011.0
20260904073207 61 165 1.0 3.0 0.03 0.03 0.03 91 1011.1
20260904073146 61 165 1.0 3.0 0.03 0.03 0.03 91 1011.1
20260904073045 61 126 1.0 3.0 0.03 0.03 0.03 91 1011.0
20260904072946 61 125 1.0 3.0 0.03 0.03 0.03 91 1011.0
20260904072845 61 139 1.0 3.0 0.03 0.03 0.03 91 1011.0
20260904072744 61 142 1.0 3.0 0.02 0.02 0.03 91 1011.0
20260904072700 61 158 1.0 3.0 0.02 0.02 0.02 91 1010.9
20260904072644 61 149 1.0 3.0 0.02 0.02 0.02 91 1010.9
20260904072544 61 158 1.0 3.0 0.02 0.02 0.02 91 1011.0
20260904072441 61 104 1.0 4.0 0.02 0.02 0.02 91 1011.0
20260904072339 61 146 1.0 4.0 0.02 0.02 0.02 91 1010.9
20260904072240 61 155 1.0 4.0 0.02 0.02 0.02 91 1011.0
20260904072138 61 127 1.0 4.0 0.02 0.02 0.02 91 1010.9
20260904072038 61 127 1.0 4.0 0.02 0.02 0.02 91 1010.9
20260904071936 61 155 2.0 4.0 0.02 0.02 0.02 91 1010.9
20260904071833 61 156 2.0 4.0 0.02 0.02 0.02 91 1010.9
20260904071730 61 117 1.0 4.0 0.02 0.02 0.02 91 1010.9
20260904071627 61 148 1.0 4.0 0.02 0.02 0.02 91 1011.0
20260904071528 61 143 1.0 3.0 0.02 0.02 0.02 91 1011.0
20260904071428 61 107 1.0 3.0 0.02 0.02 0.02 91 1011.0
20260904071327 61 131 1.0 3.0 0.01 0.01 0.02 91 1011.0
20260904071223 61 123 1.0 3.0 0.01 0.01 0.01 91 1011.0
20260904071143 61 141 1.0 3.0 0.01 0.01 0.01 91 1011.1
20260904071124 62 126 1.0 3.0 0.01 0.01 0.01 91 1011.1
20260904071023 62 204 1.0 3.0 0.01 0.01 0.01 91 1011.1
20260904070924 62 148 1.0 3.0 0.01 0.01 0.01 91 1011.1
20260904070825 62 129 1.0 3.0 0.01 0.01 0.01 91 1011.1
20260904070721 62 238 1.0 5.0 0.01 0.01 0.01 91 1011.1
20260904070652 62 238 1.0 5.0 0.01 0.01 0.01 91 1011.1
20260904070619 62 238 1.0 5.0 0.01 0.01 0.01 91 1011.1
20260904070520 62 238 1.0 5.0 0.01 0.01 0.01 91 1011.2
20260904070418 62 211 1.0 5.0 0.01 0.01 0.01 91 1011.2
20260904070315 62 197 2.0 5.0 0.01 0.01 0.01 91 1011.2
20260904070210 62 197 2.0 7.0 0.01 0.01 0.01 91 1011.2
20260904070139 62 215 2.0 7.0 0.00 0.00 0.00 91 1011.2
20260904070109 62 188 2.0 7.0 0.00 0.00 0.00 91 1011.1
20260904070010 62 221 2.0 7.0 0.00 0.00 0.00 91 1011.2
20260904065910 62 203 2.0 7.0 0.00 0.00 0.00 90 1011.2
20260904065809 63 250 2.0 7.0 0.00 0.00 0.00 90 1011.2
20260904065704 63 242 2.0 7.0 0.00 0.00 0.00 88 1011.2
20260904065639 63 195 2.0 7.0 0.00 0.00 0.00 88 1011.2
20260904065603 63 195 3.0 7.0 0.00 0.00 0.00 88 1011.2
20260904065503 63 236 3.0 8.0 0.00 0.00 0.00 87 1011.2
20260904065401 63 229 3.0 8.0 0.00 0.00 0.00 87 1011.2
20260904065301 63 219 3.0 8.0 0.00 0.00 0.00 87 1011.2
20260904065158 63 239 3.0 8.0 0.00 0.00 0.00 87 1011.2
20260904065140 63 240 3.0 8.0 0.00 0.00 0.00 87 1011.2
20260904065056 63 239 4.0 8.0 0.00 0.00 0.00 87 1011.2
20260904064956 63 168 4.0 8.0 0.00 0.00 0.00 87 1011.2
20260904064856 64 231 3.0 8.0 0.00 0.00 0.00 86 1011.2
20260904064755 64 232 3.0 8.0 0.00 0.00 0.00 86 1011.2
20260904064650 64 246 3.0 8.0 0.00 0.00 0.00 86 1011.2
20260904064637 64 235 3.0 8.0 0.00 0.00 0.00 86 1011.2
20260904064550 64 240 3.0 8.0 0.00 0.00 0.00 86 1011.1
20260904064450 64 231 3.0 7.0 0.00 0.00 0.00 85 1011.2
20260904064350 64 238 3.0 7.0 0.00 0.00 0.00 85 1011.1
20260904064248 64 250 2.0 6.0 0.00 0.00 0.00 85 1011.2
20260904064148 64 225 2.0 6.0 0.00 0.00 0.00 85 1011.1
20260904064137 64 231 2.0 6.0 0.00 0.00 0.00 85 1011.1
20260904064044 64 235 2.0 6.0 0.00 0.00 0.00 85 1011.1
20260904063944 64 226 2.0 6.0 0.00 0.00 0.00 85 1011.1
20260904063844 64 210 3.0 6.0 0.00 0.00 0.00 84 1011.1
20260904063741 64 248 3.0 6.0 0.00 0.00 0.00 84 1011.1
20260904063643 64 232 3.0 6.0 0.00 0.00 0.00 84 1011.1
20260904063637 64 222 3.0 6.0 0.00 0.00 0.00 84 1011.1
20260904063535 64 231 3.0 6.0 0.00 0.00 0.00 84 1011.1
20260904063436 64 253 3.0 8.0 0.00 0.00 0.00 84 1011.1
20260904063336 64 233 3.0 8.0 0.00 0.00 0.00 84 1011.1
20260904063233 64 217 4.0 8.0 0.00 0.00 0.00 84 1011.0
20260904063136 64 235 4.0 8.0 0.00 0.00 0.00 84 1011.0
20260904063126 64 223 4.0 8.0 0.00 0.00 0.00 84 1011.0
20260904063025 64 238 4.0 8.0 0.00 0.00 0.00 84 1011.0
20260904062926 64 235 4.0 8.0 0.00 0.00 0.00 84 1011.1
20260904062826 64 266 3.0 8.0 0.00 0.00 0.00 84 1011.0
20260904062726 64 245 3.0 8.0 0.00 0.00 0.00 83 1011.0
20260904062636 64 245 3.0 8.0 0.00 0.00 0.00 83 1011.0
20260904062620 64 248 3.0 8.0 0.00 0.00 0.00 83 1011.0
20260904062520 64 229 3.0 8.0 0.00 0.00 0.00 83 1011.0
20260904062420 65 245 3.0 8.0 0.00 0.00 0.00 83 1011.0
20260904062320 65 240 2.0 8.0 0.00 0.00 0.00 83 1011.0
20260904062221 65 245 2.0 6.0 0.00 0.00 0.00 83 1011.0
20260904062136 65 240 2.0 6.0 0.00 0.00 0.00 83 1011.0
20260904062116 65 250 2.0 6.0 0.00 0.00 0.00 83 1011.0
20260904062016 65 258 2.0 6.0 0.00 0.00 0.00 83 1011.0
20260904061916 65 238 2.0 6.0 0.00 0.00 0.00 83 1011.0
20260904061908 65 243 2.0 6.0 0.00 0.00 0.00 82 1011.1
20260904061816 65 225 2.0 6.0 0.00 0.00 0.00 83 1011.0
20260904061759 65 252 2.0 6.0 0.00 0.00 0.00 82 1011.1
20260904061607 65 218 2.0 6.0 0.00 0.00 0.00 82 1011.1
20260904061508 65 236 3.0 6.0 0.00 0.00 0.00 82 1011.0
20260904061407 65 276 3.0 9.0 0.00 0.00 0.00 82 1011.1
20260904061308 65 242 3.0 9.0 0.00 0.00 0.00 82 1011.0
20260904061205 65 236 3.0 9.0 0.00 0.00 0.00 82 1011.0
20260904061134 65 215 3.0 9.0 0.00 0.00 0.00 82 1011.0
20260904061057 65 274 3.0 9.0 0.00 0.00 0.00 82 1011.0
20260904060957 65 236 3.0 9.0 0.00 0.00 0.00 82 1011.0
20260904060856 65 233 3.0 9.0 0.00 0.00 0.00 82 1011.0
20260904060757 65 236 3.0 9.0 0.00 0.00 0.00 82 1011.0
20260904060656 65 229 2.0 9.0 0.00 0.00 0.00 82 1011.0
20260904060635 65 245 2.0 9.0 0.00 0.00 0.00 82 1011.0
20260904060549 65 210 2.0 9.0 0.00 0.00 0.00 82 1010.9
20260904060449 65 221 2.0 9.0 0.00 0.00 0.00 82 1010.9
20260904060349 65 231 2.0 6.0 0.00 0.00 0.00 82 1011.0
20260904060249 65 193 2.0 6.0 0.00 0.00 0.00 82 1010.9
20260904060148 65 229 2.0 5.0 0.00 0.00 0.00 82 1011.0
20260904060134 65 239 2.0 5.0 0.00 0.00 0.00 82 1011.0
20260904060119 65 212 2.0 5.0 0.00 0.00 0.00 82 1010.9
20260904060045 65 201 2.0 4.0 0.00 0.00 0.00 82 1010.9
20260904060004 65 148 2.0 4.0 0.00 0.00 0.00 82 1010.9
20260904055844 65 212 2.0 4.0 0.00 0.00 0.00 82 1010.9
20260904055750 65 212 2.0 5.0 0.00 0.00 0.00 82 1010.9
20260904055741 65 212 2.0 5.0 0.00 0.00 0.00 82 1010.9
20260904055535 65 215 2.0 5.0 0.00 0.00 0.00 82 1010.9
20260904055435 65 203 2.0 6.0 0.00 0.00 0.00 82 1011.0
20260904055333 65 211 3.0 6.0 0.00 0.00 0.00 82 1010.9
20260904055233 65 231 3.0 7.0 0.00 0.00 0.00 82 1010.9
20260904055133 65 228 3.0 7.0 0.00 0.00 0.00 82 1011.0
20260904055028 65 218 3.0 7.0 0.00 0.00 0.00 81 1010.9
20260904054926 65 205 3.0 7.0 0.00 0.00 0.00 81 1011.0
20260904054827 65 242 2.0 7.0 0.00 0.00 0.00 81 1011.0
20260904054727 65 236 3.0 7.0 0.00 0.00 0.00 81 1010.9
20260904054643 65 239 3.0 7.0 0.00 0.00 0.00 81 1010.9
20260904054526 65 226 3.0 7.0 0.00 0.00 0.00 81 1010.9
20260904054425 65 134 3.0 8.0 0.00 0.00 0.00 81 1011.0
20260904054323 65 219 3.0 10.0 0.00 0.00 0.00 81 1011.0
20260904054223 65 243 3.0 10.0 0.00 0.00 0.00 81 1011.0
20260904054121 65 233 3.0 10.0 0.00 0.00 0.00 81 1011.0
20260904054015 65 246 3.0 10.0 0.00 0.00 0.00 81 1011.0
20260904053915 65 255 4.0 10.0 0.00 0.00 0.00 81 1011.0
20260904053821 65 262 4.0 10.0 0.00 0.00 0.00 81 1011.0
20260904053715 65 242 3.0 10.0 0.00 0.00 0.00 81 1011.1
20260904053616 65 179 4.0 10.0 0.00 0.00 0.00 80 1011.0
20260904053509 66 238 4.0 10.0 0.00 0.00 0.00 80 1011.0
20260904053409 66 236 3.0 8.0 0.00 0.00 0.00 80 1011.1
20260904053309 66 250 3.0 8.0 0.00 0.00 0.00 80 1011.1
20260904053208 66 191 3.0 8.0 0.00 0.00 0.00 80 1011.1
20260904053109 66 245 3.0 8.0 0.00 0.00 0.00 80 1011.1
20260904053006 66 226 2.0 8.0 0.00 0.00 0.00 80 1011.1
20260904052903 66 210 2.0 8.0 0.00 0.00 0.00 80 1011.1
20260904052802 66 217 2.0 8.0 0.00 0.00 0.00 80 1011.1
20260904052703 66 228 2.0 8.0 0.00 0.00 0.00 80 1011.1
20260904052604 66 221 2.0 8.0 0.00 0.00 0.00 80 1011.1
20260904052457 66 240 2.0 6.0 0.00 0.00 0.00 80 1011.1
20260904052357 66 248 2.0 6.0 0.00 0.00 0.00 80 1011.1
20260904052257 66 235 2.0 6.0 0.00 0.00 0.00 80 1011.1
20260904052157 66 233 2.0 6.0 0.00 0.00 0.00 81 1011.1
20260904052057 66 158 2.0 4.0 0.00 0.00 0.00 81 1011.1
20260904051956 66 152 2.0 4.0 0.00 0.00 0.00 81 1011.1
20260904051855 66 143 2.0 5.0 0.00 0.00 0.00 81 1011.1
20260904051755 66 224 2.0 5.0 0.00 0.00 0.00 81 1011.1
20260904051653 66 224 2.0 5.0 0.00 0.00 0.00 81 1011.1
20260904051550 66 154 2.0 5.0 0.00 0.00 0.00 81 1011.1
20260904051451 66 232 2.0 5.0 0.00 0.00 0.00 81 1011.1
20260904051349 66 242 2.0 5.0 0.00 0.00 0.00 81 1011.1
20260904051249 66 230 2.0 6.0 0.00 0.00 0.00 81 1011.1
20260904051148 66 238 2.0 6.0 0.00 0.00 0.00 80 1011.1
20260904051046 66 224 2.0 6.0 0.00 0.00 0.00 80 1011.1
20260904050941 66 235 2.0 6.0 0.00 0.00 0.00 80 1011.1
20260904050842 66 187 2.0 6.0 0.00 0.00 0.00 80 1011.2
20260904050759 66 232 3.0 7.0 0.00 0.00 0.00 80 1011.1
20260904050742 66 233 2.0 6.0 0.00 0.00 0.00 80 1011.1
20260904050655 66 232 2.0 7.0 0.00 0.00 0.00 80 1011.2
20260904050644 66 232 3.0 7.0 0.00 0.00 0.00 80 1011.1
20260904050435 66 214 3.0 7.0 0.00 0.00 0.00 80 1011.1
20260904050333 66 231 3.0 7.0 0.00 0.00 0.00 80 1011.1
20260904050320 66 219 3.0 7.0 0.00 0.00 0.00 80 1011.1
20260904050232 66 210 3.0 7.0 0.00 0.00 0.00 80 1011.1
20260904050203 66 223 3.0 7.0 0.00 0.00 0.00 80 1011.1
20260904050033 66 219 3.0 7.0 0.00 0.00 0.00 80 1011.1
20260904045929 66 190 3.0 7.0 0.00 0.00 0.00 80 1011.1
20260904045827 66 233 3.0 7.0 0.00 0.00 0.00 80 1011.0
20260904045727 66 221 3.0 7.0 0.00 0.00 0.00 80 1011.0
20260904045628 66 230 3.0 9.0 0.00 0.00 0.00 80 1011.0
20260904045538 66 243 3.0 9.0 0.00 0.00 0.00 80 1010.9
20260904045527 66 222 3.0 9.0 0.00 0.00 0.00 80 1010.9
20260904045421 67 242 3.0 9.0 0.00 0.00 0.00 80 1010.9
20260904045321 67 233 3.0 9.0 0.00 0.00 0.00 80 1010.9
20260904045221 67 236 3.0 9.0 0.00 0.00 0.00 79 1010.8
20260904045121 67 217 3.0 9.0 0.00 0.00 0.00 79 1010.9
20260904045037 67 232 2.0 9.0 0.00 0.00 0.00 79 1010.8
20260904045021 67 231 2.0 9.0 0.00 0.00 0.00 79 1010.8
20260904044915 67 232 2.0 9.0 0.00 0.00 0.00 79 1010.9
20260904044819 67 235 2.0 9.0 0.00 0.00 0.00 79 1010.9
20260904044715 67 216 2.0 9.0 0.00 0.00 0.00 79 1010.8
20260904044615 67 232 1.0 5.0 0.00 0.00 0.00 79 1010.9
20260904044537 67 165 1.0 5.0 0.00 0.00 0.00 79 1010.9
20260904044514 67 215 1.0 5.0 0.00 0.00 0.00 79 1010.9
20260904044411 67 142 1.0 4.0 0.00 0.00 0.00 79 1010.9
20260904044312 67 228 1.0 4.0 0.00 0.00 0.00 79 1010.9
20260904044211 67 246 1.0 4.0 0.00 0.00 0.00 80 1010.8
20260904044111 67 235 1.0 4.0 0.00 0.00 0.00 79 1010.9
20260904044035 67 235 1.0 4.0 0.00 0.00 0.00 79 1010.9
20260904044009 67 242 1.0 4.0 0.00 0.00 0.00 79 1010.9
20260904043908 67 240 1.0 5.0 0.00 0.00 0.00 79 1010.9
20260904043807 67 238 1.0 5.0 0.00 0.00 0.00 79 1010.9
20260904043707 67 233 1.0 5.0 0.00 0.00 0.00 79 1010.9
20260904043605 67 250 1.0 5.0 0.00 0.00 0.00 79 1011.0
20260904043533 67 231 1.0 5.0 0.00 0.00 0.00 79 1011.0
20260904043502 67 231 1.0 5.0 0.00 0.00 0.00 79 1010.9
20260904043359 67 232 1.0 5.0 0.00 0.00 0.00 79 1011.0
20260904043257 67 238 1.0 5.0 0.00 0.00 0.00 79 1011.0
20260904043157 67 232 1.0 5.0 0.00 0.00 0.00 79 1011.0
20260904043056 67 248 1.0 6.0 0.00 0.00 0.00 79 1011.0
20260904043033 67 228 1.0 6.0 0.00 0.00 0.00 79 1011.0
20260904042956 67 269 1.0 6.0 0.00 0.00 0.00 79 1011.0
20260904042856 67 241 1.0 8.0 0.00 0.00 0.00 79 1011.0
20260904042755 67 225 2.0 8.0 0.00 0.00 0.00 79 1011.0
20260904042656 67 225 2.0 8.0 0.00 0.00 0.00 79 1011.0